| time (UTC) | temp C | wind direction | speed KPH | gust KPH | rain 1hr cm | rain 24hr cm | rain mn cm | humidity % | barometer mb |
| 20260506084903 | 23 | 151 | 1.6 | 6.4 | 0.00 | 3.25 | 0.00 | 100 | 1005.9 |
| 20260506084803 | 23 | 142 | 1.6 | 6.4 | 0.00 | 3.25 | 0.00 | 100 | 1005.9 |
| 20260506084703 | 23 | 158 | 0.0 | 4.8 | 0.00 | 3.25 | 0.00 | 100 | 1005.9 |
| 20260506084603 | 23 | 158 | 0.0 | 4.8 | 0.00 | 3.25 | 0.00 | 100 | 1005.9 |
| 20260506084504 | 23 | 158 | 1.6 | 4.8 | 0.00 | 3.25 | 0.00 | 100 | 1005.9 |
| 20260506084402 | 23 | 158 | 1.6 | 4.8 | 0.00 | 3.25 | 0.00 | 100 | 1005.9 |
| 20260506084302 | 23 | 159 | 3.2 | 4.8 | 0.00 | 3.25 | 0.00 | 100 | 1005.9 |
| 20260506084203 | 23 | 159 | 3.2 | 4.8 | 0.00 | 3.25 | 0.00 | 100 | 1005.9 |
| 20260506084103 | 23 | 131 | 0.0 | 4.8 | 0.00 | 3.25 | 0.00 | 100 | 1005.9 |
| 20260506084003 | 23 | 125 | 1.6 | 4.8 | 0.00 | 3.25 | 0.00 | 100 | 1005.9 |
| 20260506083903 | 23 | 125 | 1.6 | 4.8 | 0.00 | 3.25 | 0.00 | 100 | 1005.9 |
| 20260506083803 | 23 | 125 | 1.6 | 4.8 | 0.00 | 3.25 | 0.00 | 100 | 1005.9 |
| 20260506083703 | 23 | 125 | 1.6 | 4.8 | 0.00 | 3.25 | 0.00 | 100 | 1005.9 |
| 20260506083604 | 23 | 152 | 1.6 | 4.8 | 0.00 | 3.25 | 0.00 | 100 | 1005.9 |
| 20260506083503 | 23 | 141 | 3.2 | 4.8 | 0.00 | 3.25 | 0.00 | 100 | 1005.9 |
| 20260506083403 | 24 | 124 | 1.6 | 4.8 | 0.00 | 3.25 | 0.00 | 100 | 1005.9 |
| 20260506083304 | 24 | 145 | 0.0 | 0.0 | 0.00 | 3.25 | 0.00 | 100 | 1006.0 |
| 20260506083203 | 24 | 142 | 0.0 | 0.0 | 0.00 | 3.25 | 0.00 | 100 | 1006.1 |
| 20260506083102 | 24 | 135 | 0.0 | 0.0 | 0.00 | 3.25 | 0.00 | 100 | 1006.1 |
| 20260506083002 | 24 | 113 | 0.0 | 0.0 | 0.00 | 3.25 | 0.00 | 100 | 1006.1 |
| 20260506082902 | 24 | 144 | 0.0 | 0.0 | 0.00 | 3.25 | 0.00 | 100 | 1006.1 |
| 20260506082803 | 24 | 144 | 0.0 | 0.0 | 0.00 | 3.25 | 0.00 | 100 | 1006.1 |
| 20260506082703 | 24 | 144 | 0.0 | 0.0 | 0.00 | 3.25 | 0.00 | 100 | 1006.1 |
| 20260506082602 | 24 | 144 | 0.0 | 0.0 | 0.00 | 3.25 | 0.00 | 100 | 1006.1 |
| 20260506082503 | 24 | 144 | 0.0 | 0.0 | 0.00 | 3.25 | 0.00 | 100 | 1006.1 |
| 20260506082402 | 24 | 144 | 0.0 | 0.0 | 0.00 | 3.25 | 0.00 | 100 | 1006.1 |
| 20260506082305 | 24 | 158 | 0.0 | 1.6 | 0.00 | 3.25 | 0.00 | 100 | 1006.1 |
| 20260506082202 | 24 | 157 | 0.0 | 3.2 | 0.00 | 3.25 | 0.00 | 100 | 1006.1 |
| 20260506082104 | 24 | 161 | 0.0 | 3.2 | 0.00 | 3.25 | 0.00 | 100 | 1006.1 |
| 20260506082004 | 24 | 161 | 0.0 | 3.2 | 0.00 | 3.25 | 0.00 | 100 | 1006.1 |
| 20260506081902 | 24 | 161 | 0.0 | 3.2 | 0.00 | 3.25 | 0.00 | 100 | 1006.1 |
| 20260506081803 | 24 | 162 | 0.0 | 4.8 | 0.00 | 3.25 | 0.00 | 100 | 1006.1 |
| 20260506081702 | 24 | 162 | 0.0 | 4.8 | 0.00 | 3.25 | 0.00 | 100 | 1006.2 |
| 20260506081601 | 24 | 162 | 0.0 | 4.8 | 0.00 | 3.25 | 0.00 | 100 | 1006.2 |
| 20260506081504 | 24 | 161 | 0.0 | 4.8 | 0.00 | 3.25 | 0.00 | 100 | 1006.3 |
| 20260506081403 | 24 | 161 | 1.6 | 4.8 | 0.00 | 3.25 | 0.00 | 100 | 1006.3 |
| 20260506081303 | 24 | 162 | 3.2 | 8.0 | 0.00 | 3.25 | 0.00 | 100 | 1006.4 |
| 20260506081203 | 24 | 164 | 1.6 | 8.0 | 0.00 | 3.25 | 0.00 | 100 | 1006.4 |
| 20260506081102 | 24 | 157 | 0.0 | 8.0 | 0.00 | 3.25 | 0.00 | 100 | 1006.4 |
| 20260506081005 | 24 | 158 | 1.6 | 8.0 | 0.00 | 3.25 | 0.00 | 100 | 1006.3 |
| 20260506080902 | 24 | 158 | 1.6 | 8.0 | 0.00 | 3.25 | 0.00 | 100 | 1006.4 |
| 20260506080803 | 24 | 164 | 1.6 | 8.0 | 0.00 | 3.25 | 0.00 | 100 | 1006.3 |
| 20260506080703 | 24 | 164 | 1.6 | 8.0 | 0.00 | 3.25 | 0.00 | 100 | 1006.4 |
| 20260506080603 | 24 | 175 | 1.6 | 8.0 | 0.00 | 3.25 | 0.00 | 100 | 1006.3 |
| 20260506080503 | 24 | 159 | 1.6 | 8.0 | 0.00 | 3.25 | 0.00 | 100 | 1006.3 |
| 20260506080403 | 24 | 161 | 3.2 | 8.0 | 0.00 | 3.25 | 0.00 | 100 | 1006.2 |
| 20260506080302 | 24 | 157 | 1.6 | 4.8 | 0.00 | 3.25 | 0.00 | 100 | 1006.3 |
| 20260506080203 | 24 | 165 | 1.6 | 4.8 | 0.00 | 3.25 | 0.00 | 100 | 1006.3 |
| 20260506073504 | 24 | 162 | 0.0 | 4.8 | 0.00 | 3.25 | 0.00 | 100 | 1006.6 |
| 20260506073403 | 24 | 162 | 0.0 | 4.8 | 0.00 | 3.25 | 0.00 | 100 | 1006.7 |
| 20260506073302 | 24 | 161 | 0.0 | 4.8 | 0.00 | 3.25 | 0.00 | 100 | 1006.7 |
| 20260506073203 | 24 | 161 | 3.2 | 4.8 | 0.00 | 3.25 | 0.00 | 100 | 1006.7 |
| 20260506073102 | 24 | 161 | 1.6 | 4.8 | 0.00 | 3.25 | 0.00 | 100 | 1006.7 |
| 20260506073004 | 24 | 169 | 0.0 | 4.8 | 0.00 | 3.25 | 0.00 | 100 | 1006.7 |
| 20260506072903 | 24 | 168 | 1.6 | 4.8 | 0.00 | 3.25 | 0.00 | 100 | 1006.7 |
| 20260506072804 | 24 | 168 | 1.6 | 4.8 | 0.00 | 3.25 | 0.00 | 100 | 1006.7 |
| 20260506072703 | 24 | 171 | 1.6 | 4.8 | 0.00 | 3.25 | 0.00 | 100 | 1006.7 |
| 20260506072602 | 24 | 173 | 1.6 | 4.8 | 0.00 | 3.25 | 0.00 | 100 | 1006.7 |
| 20260506072502 | 24 | 162 | 1.6 | 4.8 | 0.00 | 3.25 | 0.00 | 100 | 1006.7 |
| 20260506072403 | 24 | 162 | 1.6 | 4.8 | 0.00 | 3.25 | 0.00 | 100 | 1006.6 |
| 20260506072305 | 24 | 173 | 3.2 | 4.8 | 0.00 | 3.25 | 0.00 | 100 | 1006.7 |
| 20260506072203 | 24 | 135 | 1.6 | 4.8 | 0.00 | 3.25 | 0.00 | 100 | 1006.6 |
| 20260506072102 | 24 | 149 | 3.2 | 4.8 | 0.00 | 3.25 | 0.00 | 100 | 1006.6 |
| 20260506072003 | 24 | 168 | 1.6 | 4.8 | 0.00 | 3.25 | 0.00 | 100 | 1006.6 |
| 20260506071902 | 24 | 154 | 1.6 | 4.8 | 0.00 | 3.25 | 0.00 | 100 | 1006.6 |
| 20260506071802 | 24 | 157 | 1.6 | 4.8 | 0.00 | 3.25 | 0.00 | 100 | 1006.6 |
| 20260506071702 | 24 | 158 | 1.6 | 4.8 | 0.00 | 3.25 | 0.00 | 100 | 1006.6 |
| 20260506071604 | 24 | 161 | 1.6 | 4.8 | 0.00 | 3.25 | 0.00 | 100 | 1006.6 |
| 20260506071502 | 24 | 158 | 1.6 | 4.8 | 0.00 | 3.25 | 0.00 | 100 | 1006.6 |
| 20260506071402 | 24 | 158 | 1.6 | 4.8 | 0.00 | 3.25 | 0.00 | 100 | 1006.6 |
| 20260506071302 | 24 | 165 | 1.6 | 4.8 | 0.00 | 3.25 | 0.00 | 100 | 1006.7 |
| 20260506071204 | 24 | 165 | 4.8 | 4.8 | 0.00 | 3.25 | 0.00 | 100 | 1006.6 |
| 20260506071104 | 24 | 145 | 1.6 | 8.0 | 0.00 | 3.25 | 0.00 | 100 | 1006.6 |
| 20260506071004 | 24 | 145 | 1.6 | 8.0 | 0.00 | 3.25 | 0.00 | 100 | 1006.6 |
| 20260506070903 | 24 | 145 | 1.6 | 8.0 | 0.00 | 3.25 | 0.00 | 100 | 1006.6 |
| 20260506070803 | 24 | 145 | 1.6 | 8.0 | 0.00 | 3.25 | 0.00 | 100 | 1006.7 |
| 20260506070703 | 24 | 145 | 1.6 | 8.0 | 0.00 | 3.25 | 0.00 | 100 | 1006.7 |
| 20260506070603 | 24 | 145 | 1.6 | 8.0 | 0.00 | 3.25 | 0.00 | 100 | 1006.6 |
| 20260506070431 | 24 | 145 | 1.6 | 8.0 | 0.00 | 3.25 | 0.00 | 100 | 1006.6 |
| 20260506070332 | 25 | 144 | 3.2 | 8.0 | 0.00 | 3.25 | 0.00 | 100 | 1006.7 |
| 20260506070233 | 25 | 171 | 4.8 | 8.0 | 0.00 | 3.25 | 0.00 | 100 | 1006.7 |
| 20260506070132 | 25 | 164 | 4.8 | 8.0 | 0.00 | 3.25 | 0.00 | 100 | 1006.7 |
| 20260506062422 | 25 | 152 | 4.8 | 8.0 | 0.00 | 3.25 | 0.00 | 100 | 1006.9 |
| 20260506062321 | 25 | 159 | 3.2 | 8.0 | 0.00 | 3.25 | 0.00 | 100 | 1006.9 |
| 20260506062222 | 25 | 172 | 3.2 | 8.0 | 0.00 | 3.25 | 0.00 | 100 | 1006.9 |
| 20260506062122 | 25 | 180 | 3.2 | 8.0 | 0.00 | 3.25 | 0.00 | 100 | 1006.9 |
| 20260506062022 | 25 | 158 | 3.2 | 8.0 | 0.00 | 3.25 | 0.00 | 100 | 1006.9 |
| 20260506061921 | 25 | 178 | 3.2 | 8.0 | 0.00 | 3.25 | 0.00 | 100 | 1006.9 |
| 20260506061823 | 25 | 172 | 3.2 | 8.0 | 0.00 | 3.25 | 0.00 | 100 | 1006.9 |
| 20260506061723 | 25 | 172 | 1.6 | 6.4 | 0.00 | 3.25 | 0.00 | 100 | 1006.9 |
| 20260506061622 | 25 | 196 | 1.6 | 6.4 | 0.00 | 3.25 | 0.00 | 100 | 1007.0 |
| 20260506061522 | 25 | 197 | 3.2 | 6.4 | 0.00 | 3.25 | 0.00 | 100 | 1006.9 |
| 20260506061421 | 25 | 199 | 4.8 | 6.4 | 0.00 | 3.25 | 0.00 | 100 | 1006.9 |
| 20260506061322 | 25 | 165 | 3.2 | 4.8 | 0.00 | 3.25 | 0.00 | 100 | 1006.9 |
| 20260506061222 | 25 | 155 | 1.6 | 3.2 | 0.00 | 3.25 | 0.00 | 100 | 1007.0 |
| 20260506061122 | 25 | 155 | 1.6 | 3.2 | 0.00 | 3.25 | 0.00 | 100 | 1006.9 |
| 20260506061020 | 25 | 155 | 1.6 | 8.0 | 0.00 | 3.25 | 0.00 | 100 | 1006.9 |
| 20260506060920 | 25 | 155 | 1.6 | 8.0 | 0.00 | 3.25 | 0.00 | 100 | 1006.9 |
| 20260506060820 | 25 | 155 | 1.6 | 8.0 | 0.00 | 3.25 | 0.00 | 100 | 1006.9 |
| 20260506060720 | 25 | 155 | 1.6 | 8.0 | 0.00 | 3.25 | 0.00 | 100 | 1006.9 |
| 20260506060620 | 25 | 155 | 1.6 | 8.0 | 0.00 | 3.25 | 0.00 | 100 | 1006.9 |
| 20260506060520 | 25 | 155 | 1.6 | 8.0 | 0.00 | 3.25 | 0.00 | 100 | 1006.9 |
| 20260506060420 | 25 | 154 | 1.6 | 8.0 | 0.00 | 3.25 | 0.00 | 100 | 1006.9 |
| 20260506060320 | 25 | 157 | 1.6 | 8.0 | 0.00 | 3.25 | 0.00 | 100 | 1006.9 |
| 20260506060203 | 25 | 159 | 3.2 | 8.0 | 0.00 | 3.25 | 0.00 | 100 | 1006.9 |
| 20260506051401 | 25 | 188 | 9.7 | 9.7 | 0.00 | 3.25 | 0.00 | 100 | 1006.8 |
| 20260506051303 | -17 | 0.0 | 0.0 | 0.00 | 3.25 | 0.00 | 1006.9 | ||
| 20260506051203 | 25 | 176 | 3.2 | 1.6 | 0.00 | 3.25 | 0.00 | 100 | 1006.9 |
| 20260506051103 | 25 | 176 | 3.2 | 6.4 | 0.00 | 3.25 | 0.00 | 100 | 1006.8 |
| 20260506051002 | 25 | 176 | 3.2 | 8.0 | 0.00 | 3.25 | 0.00 | 100 | 1006.9 |
| 20260506050903 | 25 | 176 | 3.2 | 8.0 | 0.00 | 3.25 | 0.00 | 100 | 1006.9 |
| 20260506050803 | 25 | 176 | 3.2 | 8.0 | 0.00 | 3.25 | 0.00 | 100 | 1006.9 |
| 20260506050703 | 25 | 176 | 3.2 | 8.0 | 0.00 | 3.25 | 0.00 | 100 | 1006.9 |
| 20260506050603 | 25 | 176 | 3.2 | 8.0 | 0.00 | 3.25 | 0.00 | 100 | 1006.9 |
| 20260506050503 | 25 | 176 | 3.2 | 8.0 | 0.00 | 3.25 | 0.00 | 100 | 1007.0 |
| 20260506050403 | 25 | 176 | 3.2 | 8.0 | 0.00 | 3.25 | 0.00 | 100 | 1007.0 |
| 20260506050303 | 25 | 176 | 3.2 | 8.0 | 0.00 | 3.25 | 0.00 | 100 | 1007.0 |
| 20260506050204 | 25 | 210 | 3.2 | 8.0 | 0.00 | 3.25 | 0.00 | 100 | 1006.9 |
| 20260506045103 | 25 | 182 | 1.6 | 6.4 | 0.00 | 3.25 | 3.25 | 100 | 1006.9 |
| 20260506045004 | 25 | 159 | 3.2 | 9.7 | 0.00 | 3.25 | 3.25 | 100 | 1006.8 |
| 20260506044902 | 25 | 159 | 3.2 | 9.7 | 0.00 | 3.25 | 3.25 | 100 | 1006.8 |
| 20260506044803 | 25 | 113 | 1.6 | 9.7 | 0.00 | 3.25 | 3.25 | 100 | 1006.8 |
| 20260506044702 | 25 | 145 | 3.2 | 9.7 | 0.00 | 3.25 | 3.25 | 100 | 1006.8 |
| 20260506044603 | 25 | 121 | 1.6 | 9.7 | 0.00 | 3.25 | 3.25 | 100 | 1006.8 |
| 20260506044503 | 25 | 155 | 1.6 | 9.7 | 0.00 | 3.25 | 3.25 | 100 | 1006.9 |
| 20260506044402 | 25 | 180 | 3.2 | 9.7 | 0.00 | 3.25 | 3.25 | 100 | 1006.8 |
| 20260506044303 | 25 | 185 | 3.2 | 9.7 | 0.00 | 3.25 | 3.25 | 100 | 1006.9 |
| 20260506044203 | 25 | 155 | 3.2 | 9.7 | 0.00 | 3.25 | 3.25 | 100 | 1006.9 |
| 20260506044102 | 25 | 159 | 3.2 | 9.7 | 0.00 | 3.25 | 3.25 | 100 | 1006.8 |
| 20260506044003 | 25 | 145 | 3.2 | 9.7 | 0.00 | 3.25 | 3.25 | 100 | 1006.8 |
| 20260506043903 | 25 | 151 | 3.2 | 9.7 | 0.00 | 3.25 | 3.25 | 100 | 1006.8 |
| 20260506043803 | 25 | 151 | 3.2 | 9.7 | 0.00 | 3.25 | 3.25 | 100 | 1006.8 |
| 20260506043703 | 25 | 151 | 3.2 | 9.7 | 0.00 | 3.25 | 3.25 | 100 | 1006.9 |
| 20260506043604 | 25 | 151 | 3.2 | 9.7 | 0.00 | 3.25 | 3.25 | 100 | 1006.9 |
| 20260506043502 | 25 | 145 | 3.2 | 11.3 | 0.00 | 3.25 | 3.25 | 100 | 1006.8 |
| 20260506043403 | 25 | 149 | 1.6 | 11.3 | 0.00 | 3.25 | 3.25 | 100 | 1006.9 |
| 20260506043301 | 25 | 189 | 1.6 | 11.3 | 0.00 | 3.25 | 3.25 | 100 | 1006.8 |
| 20260506043202 | 25 | 193 | 1.6 | 11.3 | 0.00 | 3.25 | 3.25 | 100 | 1006.8 |
| 20260506043102 | 25 | 154 | 3.2 | 11.3 | 0.00 | 3.25 | 3.25 | 100 | 1006.9 |
| 20260506043004 | 25 | 162 | 3.2 | 11.3 | 0.00 | 3.25 | 3.25 | 100 | 1006.9 |
| 20260506042858 | 25 | 159 | 3.2 | 11.3 | 0.00 | 3.25 | 3.25 | 100 | 1006.9 |
| 20260506042753 | 25 | 164 | 3.2 | 11.3 | 0.00 | 3.25 | 3.25 | 100 | 1006.8 |
| 20260506042653 | 25 | 155 | 3.2 | 11.3 | 0.00 | 3.25 | 3.25 | 100 | 1006.9 |
| 20260506042535 | 25 | 197 | 3.2 | 8.0 | 0.00 | 3.25 | 3.25 | 100 | 1006.9 |
| 20260506042432 | 25 | 176 | 1.6 | 8.0 | 0.00 | 3.25 | 3.25 | 100 | 1006.9 |
| 20260506042332 | 25 | 197 | 4.8 | 8.0 | 0.00 | 3.25 | 3.25 | 100 | 1006.9 |
| 20260506042231 | 25 | 197 | 4.8 | 8.0 | 0.00 | 3.25 | 3.25 | 100 | 1006.9 |
| 20260506042132 | 25 | 197 | 4.8 | 8.0 | 0.00 | 3.25 | 3.25 | 100 | 1006.8 |
| 20260506042031 | 25 | 165 | 3.2 | 8.0 | 0.00 | 3.25 | 3.25 | 100 | 1006.8 |
| 20260506041932 | 25 | 157 | 3.2 | 8.0 | 0.00 | 3.25 | 3.25 | 100 | 1006.9 |
| 20260506041822 | 25 | 179 | 1.6 | 8.0 | 0.00 | 3.25 | 3.25 | 100 | 1006.8 |
| 20260506041713 | 25 | 168 | 1.6 | 8.0 | 0.00 | 3.25 | 3.25 | 100 | 1006.8 |
| 20260506041611 | 25 | 147 | 1.6 | 8.0 | 0.00 | 3.25 | 3.25 | 100 | 1006.8 |
| 20260506041512 | 25 | 145 | 1.6 | 8.0 | 0.00 | 3.25 | 3.25 | 100 | 1006.9 |
| 20260506041403 | 25 | 164 | 3.2 | 8.0 | 0.00 | 3.25 | 3.25 | 100 | 1006.9 |
| 20260506041303 | 25 | 133 | 3.2 | 8.0 | 0.00 | 3.25 | 3.25 | 100 | 1006.9 |
| 20260506041202 | 25 | 188 | 1.6 | 8.0 | 0.00 | 3.25 | 3.25 | 100 | 1006.8 |
| 20260506041102 | 25 | 149 | 3.2 | 8.0 | 0.00 | 3.25 | 3.25 | 100 | 1006.8 |
| 20260506041005 | 25 | 161 | 3.2 | 9.7 | 0.00 | 3.25 | 3.25 | 100 | 1006.8 |
| 20260506040902 | 25 | 141 | 1.6 | 9.7 | 0.00 | 3.25 | 3.25 | 100 | 1006.8 |
| 20260506040803 | 25 | 158 | 0.0 | 9.7 | 0.00 | 3.25 | 3.25 | 100 | 1006.8 |
| 20260506040703 | 25 | 114 | 1.6 | 9.7 | 0.00 | 3.25 | 3.25 | 100 | 1006.8 |
| 20260506040602 | 25 | 204 | 3.2 | 9.7 | 0.00 | 3.25 | 3.25 | 100 | 1006.8 |
| 20260506040505 | 25 | 168 | 1.6 | 9.7 | 0.00 | 3.25 | 3.25 | 100 | 1006.8 |
| 20260506040401 | 25 | 169 | 1.6 | 9.7 | 0.00 | 3.25 | 3.25 | 100 | 1006.7 |
| 20260506040304 | 25 | 147 | 1.6 | 9.7 | 0.00 | 3.25 | 3.25 | 100 | 1006.8 |
| 20260506040202 | 25 | 148 | 4.8 | 9.7 | 0.00 | 3.25 | 3.25 | 100 | 1006.8 |
| 20260506040004 | 25 | 161 | 4.8 | 9.7 | 0.00 | 3.25 | 3.25 | 100 | 1006.8 |
| 20260506035902 | 25 | 158 | 4.8 | 9.7 | 0.00 | 3.25 | 3.25 | 100 | 1006.7 |
| 20260506035803 | 25 | 118 | 1.6 | 6.4 | 0.00 | 3.25 | 3.25 | 100 | 1006.8 |
| 20260506035703 | 25 | 159 | 3.2 | 6.4 | 0.00 | 3.25 | 3.25 | 100 | 1006.8 |
| 20260506035603 | 25 | 159 | 3.2 | 8.0 | 0.00 | 3.25 | 3.25 | 100 | 1006.7 |
| 20260506035504 | 25 | 159 | 3.2 | 8.0 | 0.00 | 3.25 | 3.25 | 100 | 1006.7 |
| 20260506035403 | 25 | 159 | 3.2 | 8.0 | 0.00 | 3.25 | 3.25 | 100 | 1006.7 |
| 20260506035306 | 25 | 159 | 3.2 | 8.0 | 0.00 | 3.25 | 3.25 | 100 | 1006.7 |
| 20260506035203 | 25 | 159 | 3.2 | 8.0 | 0.00 | 3.25 | 3.25 | 100 | 1006.7 |
| 20260506035104 | 25 | 159 | 3.2 | 8.0 | 0.00 | 3.25 | 3.25 | 100 | 1006.7 |
| 20260506035003 | 25 | 159 | 3.2 | 8.0 | 0.00 | 3.25 | 3.25 | 100 | 1006.7 |
| 20260506034903 | 25 | 159 | 3.2 | 8.0 | 0.00 | 3.25 | 3.25 | 100 | 1006.7 |
| 20260506034802 | 25 | 127 | 3.2 | 11.3 | 0.00 | 3.25 | 3.25 | 100 | 1006.7 |
| 20260506034703 | 25 | 186 | 3.2 | 11.3 | 0.00 | 3.25 | 3.25 | 100 | 1006.7 |
| 20260506034604 | 25 | 182 | 3.2 | 11.3 | 0.00 | 3.25 | 3.25 | 100 | 1006.7 |
| 20260506034503 | 25 | 158 | 3.2 | 11.3 | 0.00 | 3.25 | 3.25 | 100 | 1006.6 |
| 20260506034403 | 25 | 152 | 3.2 | 11.3 | 0.00 | 3.25 | 3.25 | 100 | 1006.6 |
| 20260506034304 | 25 | 142 | 1.6 | 14.5 | 0.00 | 3.25 | 3.25 | 100 | 1006.6 |
| 20260506034203 | 25 | 116 | 1.6 | 14.5 | 0.00 | 3.25 | 3.25 | 100 | 1006.6 |
| 20260506034103 | 25 | 158 | 1.6 | 14.5 | 0.00 | 3.25 | 3.25 | 100 | 1006.7 |
| 20260506034003 | 25 | 186 | 4.8 | 14.5 | 0.00 | 3.25 | 3.25 | 100 | 1006.6 |
| 20260506033902 | 25 | 169 | 4.8 | 14.5 | 0.00 | 3.25 | 3.25 | 100 | 1006.7 |
| 20260506033803 | 25 | 216 | 3.2 | 14.5 | 0.00 | 3.25 | 3.25 | 100 | 1006.7 |
| 20260506033702 | 25 | 161 | 3.2 | 14.5 | 0.00 | 3.25 | 3.25 | 100 | 1006.6 |
| 20260506033604 | 25 | 169 | 3.2 | 14.5 | 0.00 | 3.25 | 3.25 | 100 | 1006.6 |
| 20260506033502 | 25 | 169 | 6.4 | 14.5 | 0.00 | 3.25 | 3.25 | 100 | 1006.6 |
| 20260506033403 | 25 | 161 | 4.8 | 14.5 | 0.00 | 3.25 | 3.25 | 100 | 1006.7 |
| 20260506033301 | 25 | 155 | 3.2 | 11.3 | 0.00 | 3.25 | 3.25 | 100 | 1006.6 |
| 20260506033204 | 25 | 158 | 4.8 | 11.3 | 0.00 | 3.25 | 3.25 | 100 | 1006.6 |
| 20260506033102 | 25 | 164 | 4.8 | 11.3 | 0.00 | 3.25 | 3.25 | 100 | 1006.6 |
| 20260506033005 | 25 | 124 | 4.8 | 11.3 | 0.00 | 3.25 | 3.25 | 100 | 1006.5 |
| 20260506032904 | 25 | 145 | 1.6 | 9.7 | 0.00 | 3.25 | 3.25 | 100 | 1006.6 |
| 20260506032803 | 25 | 125 | 1.6 | 9.7 | 0.00 | 3.25 | 3.25 | 100 | 1006.5 |
| 20260506032702 | 25 | 165 | 3.2 | 9.7 | 0.00 | 3.25 | 3.25 | 100 | 1006.4 |
| 20260506032602 | 25 | 148 | 1.6 | 9.7 | 0.00 | 3.25 | 3.25 | 100 | 1006.4 |
| 20260506032503 | 25 | 151 | 3.2 | 9.7 | 0.00 | 3.25 | 3.25 | 100 | 1006.5 |
| 20260506032403 | 25 | 149 | 4.8 | 11.3 | 0.00 | 3.25 | 3.25 | 100 | 1006.4 |
| 20260506032305 | 25 | 165 | 4.8 | 11.3 | 0.00 | 3.25 | 3.25 | 100 | 1006.4 |
| 20260506032202 | 25 | 130 | 1.6 | 11.3 | 0.00 | 3.25 | 3.25 | 100 | 1006.4 |
| 20260506032103 | 25 | 137 | 0.0 | 11.3 | 0.00 | 3.25 | 3.25 | 100 | 1006.4 |
| 20260506032005 | 25 | 135 | 0.0 | 11.3 | 0.00 | 3.25 | 3.25 | 100 | 1006.4 |
| 20260506031902 | 25 | 185 | 1.6 | 11.3 | 0.00 | 3.25 | 3.25 | 100 | 1006.4 |
| 20260506031802 | 25 | 140 | 3.2 | 11.3 | 0.00 | 3.25 | 3.25 | 100 | 1006.4 |
| 20260506031702 | 25 | 158 | 4.8 | 11.3 | 0.00 | 3.25 | 3.25 | 100 | 1006.4 |
| 20260506031602 | 25 | 154 | 4.8 | 11.3 | 0.00 | 3.25 | 3.25 | 100 | 1006.4 |
| 20260506031502 | 25 | 152 | 3.2 | 11.3 | 0.00 | 3.25 | 3.25 | 100 | 1006.4 |
| 20260506031403 | 25 | 157 | 1.6 | 11.3 | 0.00 | 3.25 | 3.25 | 100 | 1006.4 |
| 20260506031259 | 25 | 157 | 3.2 | 11.3 | 0.00 | 3.25 | 3.25 | 100 | 1006.4 |
| 20260506031155 | 25 | 157 | 1.6 | 11.3 | 0.00 | 3.25 | 3.25 | 100 | 1006.3 |
| 20260506031054 | 25 | 137 | 1.6 | 11.3 | 0.00 | 3.25 | 3.25 | 100 | 1006.3 |
| 20260506030949 | 25 | 152 | 3.2 | 11.3 | 0.00 | 3.25 | 3.25 | 100 | 1006.3 |
| 20260506030849 | 25 | 131 | 4.8 | 11.3 | 0.00 | 3.25 | 3.25 | 100 | 1006.3 |
| 20260506030746 | 25 | 161 | 3.2 | 11.3 | 0.00 | 3.25 | 3.25 | 100 | 1006.2 |
| 20260506030643 | 25 | 168 | 1.6 | 11.3 | 0.00 | 3.25 | 3.25 | 100 | 1006.3 |
| 20260506030530 | 25 | 171 | 3.2 | 11.3 | 0.00 | 3.25 | 3.25 | 100 | 1006.3 |
| 20260506030432 | 25 | 145 | 3.2 | 11.3 | 0.00 | 3.25 | 3.25 | 100 | 1006.2 |
| 20260506030332 | 25 | 164 | 3.2 | 11.3 | 0.00 | 3.25 | 3.25 | 100 | 1006.3 |
| 20260506030232 | 25 | 154 | 3.2 | 11.3 | 0.00 | 3.25 | 3.25 | 100 | 1006.3 |
| 20260506030122 | 25 | 111 | 3.2 | 11.3 | 0.00 | 3.25 | 3.25 | 100 | 1006.2 |
| 20260506030011 | 25 | 188 | 1.6 | 9.7 | 0.00 | 3.25 | 3.25 | 100 | 1006.2 |
| 20260506025908 | 25 | 193 | 1.6 | 9.7 | 0.00 | 3.25 | 3.25 | 100 | 1006.2 |
| 20260506025809 | 25 | 166 | 3.2 | 9.7 | 0.00 | 3.25 | 3.25 | 100 | 1006.2 |
| 20260506025710 | 25 | 159 | 1.6 | 9.7 | 0.00 | 3.25 | 3.25 | 100 | 1006.2 |
| 20260506025610 | 25 | 154 | 1.6 | 9.7 | 0.00 | 3.25 | 3.25 | 100 | 1006.1 |
| 20260506025509 | 25 | 173 | 1.6 | 9.7 | 0.00 | 3.25 | 3.25 | 100 | 1006.1 |
| 20260506025409 | 25 | 173 | 1.6 | 9.7 | 0.00 | 3.25 | 3.25 | 100 | 1006.1 |
| 20260506025309 | 25 | 173 | 1.6 | 9.7 | 0.00 | 3.25 | 3.25 | 100 | 1006.0 |
| 20260506025209 | 25 | 190 | 3.2 | 9.7 | 0.00 | 3.25 | 3.25 | 100 | 1006.1 |
| 20260506025110 | 25 | 157 | 3.2 | 9.7 | 0.00 | 3.25 | 3.25 | 100 | 1006.1 |
| 20260506025010 | 25 | 193 | 1.6 | 8.0 | 0.00 | 3.25 | 3.25 | 100 | 1006.0 |
| 20260506024907 | 25 | 159 | 3.2 | 8.0 | 0.00 | 3.25 | 3.25 | 100 | 1006.0 |
| 20260506024808 | 25 | 140 | 3.2 | 11.3 | 0.00 | 3.25 | 3.25 | 100 | 1006.0 |
| 20260506024709 | 25 | 145 | 1.6 | 11.3 | 0.00 | 3.25 | 3.25 | 100 | 1005.9 |
| 20260506024608 | 25 | 168 | 0.0 | 11.3 | 0.00 | 3.25 | 3.25 | 100 | 1006.0 |
| 20260506024510 | 25 | 157 | 0.0 | 11.3 | 0.00 | 3.25 | 3.25 | 100 | 1005.9 |
| 20260506024407 | 25 | 154 | 0.0 | 11.3 | 0.00 | 3.25 | 3.25 | 100 | 1006.0 |
| 20260506024309 | 25 | 155 | 1.6 | 11.3 | 0.00 | 3.25 | 3.25 | 100 | 1005.9 |
| 20260506024207 | 25 | 140 | 3.2 | 11.3 | 0.00 | 3.25 | 3.25 | 100 | 1005.9 |
| 20260506024109 | 25 | 162 | 1.6 | 11.3 | 0.00 | 3.25 | 3.25 | 100 | 1005.9 |
| 20260506024009 | 25 | 179 | 3.2 | 11.3 | 0.00 | 3.25 | 3.25 | 100 | 1005.9 |
| 20260506023909 | 25 | 226 | 3.2 | 11.3 | 0.00 | 3.25 | 3.25 | 100 | 1005.9 |
| 20260506023809 | 25 | 192 | 3.2 | 11.3 | 0.00 | 3.25 | 3.25 | 100 | 1005.9 |
| 20260506023709 | 25 | 134 | 3.2 | 11.3 | 0.00 | 3.25 | 3.25 | 100 | 1005.9 |
| 20260506023609 | 25 | 125 | 3.2 | 11.3 | 0.00 | 3.25 | 3.25 | 100 | 1005.8 |
| 20260506023509 | 25 | 176 | 3.2 | 11.3 | 0.00 | 3.25 | 3.25 | 100 | 1005.8 |
| 20260506023407 | 25 | 169 | 4.8 | 11.3 | 0.00 | 3.25 | 3.25 | 100 | 1005.8 |
| 20260506023308 | 25 | 144 | 3.2 | 11.3 | 0.00 | 3.25 | 3.25 | 100 | 1005.8 |
| 20260506023209 | 25 | 155 | 3.2 | 11.3 | 0.00 | 3.25 | 3.25 | 100 | 1005.8 |
| 20260506023108 | 25 | 149 | 3.2 | 11.3 | 0.00 | 3.25 | 3.25 | 100 | 1005.7 |
| 20260506023008 | 25 | 172 | 3.2 | 11.3 | 0.00 | 3.25 | 3.25 | 100 | 1005.8 |
| 20260506022909 | 25 | 166 | 3.2 | 11.3 | 0.00 | 3.25 | 3.25 | 100 | 1005.7 |
| 20260506022809 | 25 | 162 | 1.6 | 8.0 | 0.00 | 3.25 | 3.25 | 100 | 1005.7 |
| 20260506022709 | 25 | 162 | 3.2 | 8.0 | 0.00 | 3.25 | 3.25 | 100 | 1005.7 |
| 20260506022609 | 25 | 176 | 3.2 | 8.0 | 0.00 | 3.25 | 3.25 | 100 | 1005.7 |
| 20260506022508 | 25 | 151 | 3.2 | 6.4 | 0.00 | 3.25 | 3.25 | 100 | 1005.7 |
| 20260506022409 | 25 | 180 | 3.2 | 6.4 | 0.00 | 3.25 | 3.25 | 100 | 1005.6 |
| 20260506022309 | 25 | 158 | 1.6 | 6.4 | 0.00 | 3.25 | 3.25 | 100 | 1005.6 |
| 20260506022208 | 25 | 178 | 1.6 | 6.4 | 0.00 | 3.25 | 3.25 | 100 | 1005.6 |
| 20260506022108 | 26 | 148 | 1.6 | 6.4 | 0.00 | 3.25 | 3.25 | 100 | 1005.5 |
| 20260506022007 | 26 | 164 | 1.6 | 6.4 | 0.00 | 3.25 | 3.25 | 100 | 1005.5 |
| 20260506021908 | 26 | 138 | 1.6 | 6.4 | 0.00 | 3.25 | 3.25 | 100 | 1005.5 |
| 20260506021808 | 26 | 148 | 1.6 | 6.4 | 0.00 | 3.25 | 3.25 | 100 | 1005.4 |
| 20260506021708 | 26 | 142 | 1.6 | 6.4 | 0.00 | 3.25 | 3.25 | 100 | 1005.4 |
| 20260506021608 | 26 | 159 | 1.6 | 6.4 | 0.00 | 3.25 | 3.25 | 100 | 1005.4 |
| 20260506021507 | 26 | 159 | 1.6 | 6.4 | 0.00 | 3.25 | 3.25 | 100 | 1005.4 |
| 20260506021408 | 26 | 162 | 1.6 | 6.4 | 0.00 | 3.25 | 3.25 | 100 | 1005.3 |
| 20260506021309 | 26 | 141 | 0.0 | 6.4 | 0.00 | 3.25 | 3.25 | 100 | 1005.4 |
| 20260506021209 | 26 | 141 | 0.0 | 6.4 | 0.00 | 3.25 | 3.25 | 100 | 1005.3 |
| 20260506021108 | 26 | 131 | 0.0 | 6.4 | 0.00 | 3.25 | 3.25 | 100 | 1005.3 |
| 20260506021007 | 26 | 152 | 1.6 | 6.4 | 0.00 | 3.25 | 3.25 | 100 | 1005.4 |
| 20260506020908 | 26 | 152 | 1.6 | 6.4 | 0.00 | 3.25 | 3.25 | 100 | 1005.4 |
| 20260506020808 | 26 | 161 | 1.6 | 6.4 | 0.00 | 3.25 | 3.25 | 100 | 1005.3 |
| 20260506020708 | 26 | 162 | 0.0 | 6.4 | 0.00 | 3.25 | 3.25 | 100 | 1005.3 |
| 20260506020604 | 26 | 121 | 0.0 | 6.4 | 0.00 | 3.25 | 3.25 | 100 | 1005.3 |
| 20260506020504 | 26 | 148 | 0.0 | 6.4 | 0.00 | 3.25 | 3.25 | 100 | 1005.2 |
| 20260506020403 | 26 | 154 | 1.6 | 6.4 | 0.00 | 3.25 | 3.25 | 100 | 1005.2 |
| 20260506020302 | 26 | 155 | 3.2 | 6.4 | 0.00 | 3.25 | 3.25 | 100 | 1005.2 |
| 20260506020203 | 26 | 171 | 1.6 | 6.4 | 0.00 | 3.25 | 3.25 | 100 | 1005.2 |
| 20260506020004 | 26 | 164 | 0.0 | 8.0 | 0.00 | 3.25 | 3.25 | 100 | 1005.2 |
| 20260506015903 | 26 | 159 | 0.0 | 8.0 | 0.00 | 3.25 | 3.25 | 100 | 1005.1 |
| 20260506015802 | 26 | 159 | 0.0 | 8.0 | 0.00 | 3.25 | 3.25 | 100 | 1005.2 |
| 20260506015704 | 26 | 159 | 1.6 | 8.0 | 0.00 | 3.25 | 3.25 | 100 | 1005.2 |
| 20260506015604 | 26 | 168 | 0.0 | 8.0 | 0.00 | 3.25 | 3.25 | 100 | 1005.2 |
| 20260506015503 | 26 | 142 | 1.6 | 8.0 | 0.00 | 3.25 | 3.25 | 100 | 1005.2 |
| 20260506015402 | 26 | 142 | 1.6 | 8.0 | 0.00 | 3.25 | 3.25 | 100 | 1005.2 |
| 20260506015305 | 26 | 157 | 1.6 | 8.0 | 0.00 | 3.25 | 3.25 | 100 | 1005.2 |
| 20260506015203 | 26 | 166 | 3.2 | 8.0 | 0.00 | 3.25 | 3.25 | 100 | 1005.1 |
| 20260506015102 | 26 | 168 | 3.2 | 8.0 | 0.00 | 3.25 | 3.25 | 100 | 1005.1 |
| 20260506015003 | 26 | 171 | 1.6 | 8.0 | 0.00 | 3.25 | 3.25 | 100 | 1005.1 |
| 20260506014901 | 26 | 149 | 1.6 | 8.0 | 0.00 | 3.25 | 3.25 | 100 | 1005.0 |
| 20260506014803 | 26 | 147 | 3.2 | 8.0 | 0.00 | 3.25 | 3.25 | 100 | 1005.0 |
| 20260506014703 | 26 | 149 | 3.2 | 8.0 | 0.00 | 3.25 | 3.25 | 100 | 1005.1 |
| 20260506014603 | 26 | 152 | 3.2 | 8.0 | 0.00 | 3.25 | 3.25 | 100 | 1005.1 |
| 20260506014503 | 26 | 152 | 3.2 | 8.0 | 0.00 | 3.25 | 3.25 | 100 | 1005.0 |
| 20260506014403 | 26 | 164 | 3.2 | 9.7 | 0.00 | 3.25 | 3.25 | 100 | 1005.1 |
| 20260506014303 | 26 | 172 | 3.2 | 9.7 | 0.00 | 3.25 | 3.25 | 100 | 1005.1 |
| 20260506014203 | 26 | 175 | 3.2 | 9.7 | 0.00 | 3.25 | 3.25 | 100 | 1005.1 |
| 20260506014102 | 26 | 164 | 4.8 | 9.7 | 0.00 | 3.25 | 3.25 | 100 | 1005.0 |
| 20260506014005 | 26 | 157 | 3.2 | 9.7 | 0.00 | 3.25 | 3.25 | 100 | 1005.0 |
| 20260506013902 | 26 | 171 | 1.6 | 14.5 | 0.00 | 3.25 | 3.25 | 100 | 1005.0 |
| 20260506013803 | 26 | 158 | 3.2 | 14.5 | 0.00 | 3.25 | 3.25 | 100 | 1005.0 |
| 20260506013702 | 26 | 142 | 3.2 | 14.5 | 0.00 | 3.25 | 3.25 | 100 | 1005.0 |
| 20260506013602 | 26 | 158 | 4.8 | 16.1 | 0.00 | 3.25 | 3.25 | 100 | 1004.9 |
| 20260506013502 | 26 | 158 | 4.8 | 16.1 | 0.00 | 3.25 | 3.25 | 100 | 1004.9 |
| 20260506013404 | 26 | 162 | 1.6 | 16.1 | 0.00 | 3.25 | 3.25 | 100 | 1004.8 |
| 20260506013302 | 26 | 162 | 1.6 | 16.1 | 0.00 | 3.25 | 3.25 | 100 | 1004.9 |
| 20260506013203 | 26 | 162 | 1.6 | 16.1 | 0.00 | 3.25 | 3.25 | 100 | 1004.9 |
| 20260506013103 | 26 | 164 | 6.4 | 16.1 | 0.00 | 3.25 | 3.25 | 100 | 1004.8 |
| 20260506013003 | 26 | 166 | 9.7 | 16.1 | 0.00 | 3.25 | 3.25 | 100 | 1004.8 |
| 20260506012902 | 26 | 171 | 8.0 | 16.1 | 0.00 | 3.25 | 3.25 | 100 | 1004.8 |
| 20260506012802 | 26 | 173 | 8.0 | 16.1 | 0.00 | 3.25 | 3.25 | 100 | 1004.8 |
| 20260506012701 | 26 | 130 | 8.0 | 16.1 | 0.00 | 3.25 | 3.25 | 100 | 1004.8 |
| 20260506012602 | 26 | 123 | 3.2 | 16.1 | 0.00 | 3.25 | 3.25 | 100 | 1004.8 |
| 20260506012504 | 26 | 190 | 3.2 | 16.1 | 0.00 | 3.25 | 3.25 | 100 | 1004.8 |
| 20260506012402 | 26 | 140 | 3.2 | 16.1 | 0.00 | 3.25 | 3.25 | 100 | 1004.7 |
| 20260506012301 | 26 | 121 | 3.2 | 16.1 | 0.00 | 3.25 | 3.25 | 100 | 1004.8 |
| 20260506012202 | 26 | 157 | 3.2 | 16.1 | 0.00 | 3.25 | 3.25 | 100 | 1004.7 |
| 20260506012103 | 26 | 148 | 6.4 | 16.1 | 0.00 | 3.25 | 3.25 | 100 | 1004.8 |
| 20260506012002 | 26 | 149 | 3.2 | 16.1 | 0.00 | 3.25 | 3.25 | 100 | 1004.7 |
| 20260506011903 | 26 | 165 | 4.8 | 16.1 | 0.00 | 3.25 | 3.25 | 100 | 1004.8 |
| 20260506011803 | 26 | 104 | 4.8 | 16.1 | 0.00 | 3.25 | 3.25 | 100 | 1004.7 |
| 20260506011702 | 26 | 176 | 3.2 | 14.5 | 0.00 | 3.25 | 3.25 | 100 | 1004.8 |
| 20260506011603 | 26 | 166 | 4.8 | 14.5 | 0.00 | 3.25 | 3.25 | 100 | 1004.8 |
| 20260506011503 | 26 | 134 | 4.8 | 14.5 | 0.00 | 3.25 | 3.25 | 100 | 1004.8 |
| 20260506011404 | 26 | 155 | 4.8 | 14.5 | 0.00 | 3.25 | 3.25 | 100 | 1004.8 |
| 20260506011301 | 26 | 169 | 3.2 | 14.5 | 0.00 | 3.25 | 3.25 | 100 | 1004.8 |
| 20260506011203 | 26 | 165 | 3.2 | 11.3 | 0.00 | 3.25 | 3.25 | 100 | 1004.7 |
| 20260506011101 | 26 | 144 | 4.8 | 11.3 | 0.00 | 3.25 | 3.25 | 100 | 1004.7 |
| 20260506011005 | 27 | 162 | 6.4 | 11.3 | 0.00 | 3.25 | 3.25 | 100 | 1004.7 |
| 20260506010902 | 27 | 159 | 6.4 | 11.3 | 0.00 | 3.25 | 3.25 | 100 | 1004.7 |
| 20260506010803 | 27 | 128 | 4.8 | 11.3 | 0.00 | 3.25 | 3.25 | 100 | 1004.7 |
| 20260506010704 | 27 | 182 | 3.2 | 9.7 | 0.00 | 3.25 | 3.25 | 100 | 1004.7 |
| 20260506010603 | 27 | 159 | 1.6 | 9.7 | 0.00 | 3.25 | 3.25 | 100 | 1004.7 |
| 20260506010503 | 27 | 158 | 3.2 | 9.7 | 0.00 | 3.25 | 3.25 | 100 | 1004.7 |
| 20260506010404 | 27 | 152 | 4.8 | 11.3 | 0.00 | 3.25 | 3.25 | 100 | 1004.6 |
| 20260506010302 | 27 | 158 | 4.8 | 11.3 | 0.00 | 3.25 | 3.25 | 100 | 1004.7 |
| 20260506010202 | 26 | 140 | 3.2 | 11.3 | 0.00 | 3.25 | 3.25 | 100 | 1004.7 |
| 20260506010103 | 26 | 148 | 3.2 | 14.5 | 0.00 | 3.25 | 3.25 | 100 | 1004.7 |
| 20260506010004 | 26 | 157 | 1.6 | 14.5 | 0.00 | 3.25 | 3.25 | 100 | 1004.7 |
| 20260506005904 | 26 | 162 | 1.6 | 14.5 | 0.00 | 3.25 | 3.25 | 100 | 1004.6 |
| 20260506005803 | 26 | 161 | 3.2 | 14.5 | 0.00 | 3.25 | 3.25 | 100 | 1004.7 |
| 20260506005702 | 26 | 162 | 4.8 | 14.5 | 0.00 | 3.25 | 3.25 | 100 | 1004.7 |
| 20260506005602 | 26 | 134 | 6.4 | 14.5 | 0.00 | 3.25 | 3.25 | 100 | 1004.6 |
| 20260506005502 | 26 | 161 | 3.2 | 14.5 | 0.00 | 3.25 | 3.25 | 100 | 1004.8 |
| 20260506005402 | 26 | 137 | 3.2 | 14.5 | 0.00 | 3.25 | 3.25 | 100 | 1004.7 |
| 20260506005305 | 26 | 179 | 4.8 | 14.5 | 0.00 | 3.25 | 3.25 | 100 | 1004.7 |
| 20260506005203 | 26 | 135 | 6.4 | 14.5 | 0.00 | 3.25 | 3.25 | 100 | 1004.7 |
| 20260506005103 | 26 | 159 | 3.2 | 8.0 | 0.00 | 3.25 | 3.25 | 100 | 1004.7 |
| 20260506005003 | 26 | 154 | 1.6 | 8.0 | 0.00 | 3.25 | 3.25 | 100 | 1004.7 |
| 20260506004903 | 26 | 165 | 3.2 | 9.7 | 0.00 | 3.25 | 3.25 | 100 | 1004.7 |
| 20260506004805 | 26 | 141 | 3.2 | 9.7 | 0.00 | 3.25 | 3.25 | 100 | 1004.7 |
| 20260506004702 | 26 | 157 | 1.6 | 9.7 | 0.00 | 3.25 | 3.25 | 100 | 1004.6 |
| 20260506004604 | 26 | 155 | 1.6 | 9.7 | 0.00 | 3.25 | 3.25 | 100 | 1004.6 |
| 20260506004504 | 27 | 157 | 3.2 | 9.7 | 0.00 | 3.25 | 3.25 | 100 | 1004.6 |
| 20260506004403 | 27 | 165 | 1.6 | 9.7 | 0.00 | 3.25 | 3.25 | 100 | 1004.6 |
| 20260506004302 | 27 | 135 | 1.6 | 9.7 | 0.00 | 3.25 | 3.25 | 100 | 1004.5 |
| 20260506004203 | 27 | 169 | 3.2 | 9.7 | 0.00 | 3.25 | 3.25 | 100 | 1004.5 |
| 20260506004102 | 27 | 164 | 4.8 | 9.7 | 0.00 | 3.25 | 3.25 | 100 | 1004.6 |
| 20260506004004 | 27 | 141 | 4.8 | 9.7 | 0.00 | 3.25 | 3.25 | 100 | 1004.5 |
| 20260506003903 | -17 | 0.0 | 0.0 | 0.00 | 3.25 | 3.25 | 1004.5 | ||
| 20260506003803 | -17 | 0.0 | 0.0 | 0.00 | 3.25 | 3.25 | 1004.5 | ||
| 20260506003631 | -17 | 0.0 | 0.0 | 0.00 | 3.25 | 3.25 | 1004.5 | ||
| 20260506003532 | -17 | 0.0 | 0.0 | 0.00 | 3.25 | 3.25 | 1004.5 | ||
| 20260506003432 | 26 | 176 | 3.2 | 4.8 | 0.00 | 3.25 | 3.25 | 100 | 1004.5 |
| 20260506003332 | 26 | 176 | 3.2 | 4.8 | 0.00 | 3.25 | 3.25 | 100 | 1004.5 |
| 20260506003232 | 26 | 176 | 3.2 | 6.4 | 0.00 | 3.25 | 3.25 | 100 | 1004.5 |
| 20260506003132 | 26 | 176 | 3.2 | 8.0 | 0.00 | 3.25 | 3.25 | 100 | 1004.4 |
| 20260506003032 | 26 | 176 | 3.2 | 14.5 | 0.00 | 3.25 | 3.25 | 100 | 1004.4 |
| 20260506002931 | 26 | 176 | 3.2 | 14.5 | 0.00 | 3.25 | 3.25 | 100 | 1004.4 |
| 20260506002803 | 26 | 176 | 3.2 | 14.5 | 0.00 | 3.25 | 3.25 | 100 | 1004.4 |
| 20260506002703 | 26 | 176 | 3.2 | 14.5 | 0.00 | 3.25 | 3.25 | 100 | 1004.4 |
| 20260506002603 | 26 | 176 | 3.2 | 14.5 | 0.00 | 3.25 | 3.25 | 100 | 1004.4 |
| 20260506002503 | 26 | 178 | 3.2 | 14.5 | 0.00 | 3.25 | 3.25 | 100 | 1004.3 |
| 20260506002402 | 26 | 203 | 3.2 | 14.5 | 0.00 | 3.25 | 3.25 | 100 | 1004.4 |
| 20260506002302 | 26 | 178 | 4.8 | 14.5 | 0.00 | 3.25 | 3.25 | 100 | 1004.4 |
| 20260506002201 | 26 | 145 | 4.8 | 14.5 | 0.00 | 3.25 | 3.25 | 100 | 1004.3 |
| 20260506002102 | 26 | 182 | 6.4 | 14.5 | 0.00 | 3.25 | 3.25 | 100 | 1004.3 |
| 20260506002004 | 27 | 127 | 6.4 | 9.7 | 0.00 | 3.25 | 3.25 | 100 | 1004.4 |
| 20260506001902 | 27 | 164 | 4.8 | 8.0 | 0.00 | 3.25 | 3.25 | 100 | 1004.3 |
| 20260506001802 | 27 | 175 | 4.8 | 8.0 | 0.00 | 3.25 | 3.25 | 100 | 1004.3 |
| 20260506001702 | 27 | 172 | 3.2 | 11.3 | 0.00 | 3.25 | 3.25 | 100 | 1004.3 |
| 20260506001602 | 27 | 134 | 1.6 | 11.3 | 0.00 | 3.25 | 3.25 | 100 | 1004.4 |
| 20260506001503 | 27 | 134 | 1.6 | 11.3 | 0.00 | 3.25 | 3.25 | 100 | 1004.3 |
| 20260506001403 | 27 | 155 | 1.6 | 11.3 | 0.00 | 3.25 | 3.25 | 100 | 1004.4 |
| 20260506001302 | 27 | 155 | 3.2 | 11.3 | 0.00 | 3.25 | 3.25 | 100 | 1004.4 |
| 20260506001201 | 27 | 179 | 3.2 | 11.3 | 0.00 | 3.25 | 3.25 | 100 | 1004.4 |
| 20260506001103 | 27 | 135 | 4.8 | 14.5 | 0.00 | 3.25 | 3.25 | 100 | 1004.4 |
| 20260506001003 | 27 | 127 | 4.8 | 14.5 | 0.00 | 3.25 | 3.25 | 100 | 1004.4 |
| 20260506000903 | 27 | 164 | 4.8 | 14.5 | 0.00 | 3.25 | 3.25 | 100 | 1004.4 |
| 20260506000803 | 27 | 176 | 4.8 | 14.5 | 0.00 | 3.25 | 3.25 | 100 | 1004.4 |
| 20260506000702 | 27 | 189 | 3.2 | 14.5 | 0.00 | 3.25 | 3.25 | 100 | 1004.3 |
| 20260506000601 | 27 | 175 | 3.2 | 14.5 | 0.00 | 3.25 | 3.25 | 100 | 1004.3 |
| 20260506000502 | 26 | 164 | 4.8 | 14.5 | 0.00 | 3.25 | 3.25 | 100 | 1004.4 |
| 20260506000402 | 26 | 164 | 4.8 | 14.5 | 0.00 | 3.25 | 3.25 | 100 | 1004.4 |
| 20260506000302 | 26 | 164 | 4.8 | 14.5 | 0.00 | 3.25 | 3.25 | 100 | 1004.3 |
| 20260506000204 | 26 | 164 | 4.8 | 14.5 | 0.00 | 3.25 | 3.25 | 100 | 1004.3 |
| 20260506000002 | 26 | 186 | 4.8 | 16.1 | 0.00 | 3.25 | 3.25 | 100 | 1004.3 |
| 20260505235859 | 26 | 151 | 4.8 | 16.1 | 0.00 | 3.25 | 3.25 | 100 | 1004.3 |
| 20260505235759 | 26 | 151 | 4.8 | 16.1 | 0.00 | 3.25 | 3.25 | 100 | 1004.3 |
| 20260505235658 | 26 | 179 | 4.8 | 16.1 | 0.00 | 3.25 | 3.25 | 100 | 1004.4 |
| 20260505235550 | 26 | 79 | 4.8 | 16.1 | 0.00 | 3.25 | 3.25 | 100 | 1004.3 |
| 20260505235432 | 26 | 159 | 4.8 | 16.1 | 0.00 | 3.25 | 3.25 | 100 | 1004.3 |
| 20260505235331 | 27 | 133 | 6.4 | 16.1 | 0.00 | 3.25 | 3.25 | 100 | 1004.4 |
| 20260505235232 | 27 | 133 | 6.4 | 16.1 | 0.00 | 3.25 | 3.25 | 100 | 1004.3 |
| 20260505235128 | 27 | 169 | 6.4 | 16.1 | 0.00 | 3.25 | 3.25 | 100 | 1004.3 |
| 20260505235025 | 27 | 168 | 4.8 | 16.1 | 0.00 | 3.25 | 3.25 | 100 | 1004.3 |
| 20260505234911 | 27 | 158 | 4.8 | 16.1 | 0.00 | 3.25 | 3.25 | 100 | 1004.3 |
| 20260505234809 | 27 | 138 | 4.8 | 16.1 | 0.00 | 3.25 | 3.25 | 100 | 1004.2 |
| 20260505234708 | 27 | 151 | 4.8 | 16.1 | 0.00 | 3.25 | 3.25 | 100 | 1004.2 |
| 20260505234603 | 27 | 200 | 6.4 | 16.1 | 0.00 | 3.25 | 3.25 | 100 | 1004.2 |
| 20260505234504 | 27 | 168 | 6.4 | 16.1 | 0.00 | 3.25 | 3.25 | 100 | 1004.2 |
| 20260505234401 | 27 | 234 | 6.4 | 16.1 | 0.00 | 3.25 | 3.25 | 100 | 1004.2 |
| 20260505234302 | 27 | 140 | 6.4 | 16.1 | 0.00 | 3.25 | 3.25 | 100 | 1004.3 |
| 20260505234202 | 27 | 134 | 4.8 | 16.1 | 0.00 | 3.25 | 3.25 | 100 | 1004.3 |
| 20260505234102 | 27 | 165 | 6.4 | 16.1 | 0.00 | 3.25 | 3.25 | 100 | 1004.3 |
| 20260505234003 | 27 | 180 | 6.4 | 16.1 | 0.00 | 3.25 | 3.25 | 100 | 1004.3 |
| 20260505233902 | 27 | 159 | 4.8 | 16.1 | 0.00 | 3.25 | 3.25 | 100 | 1004.3 |
| 20260505233802 | 27 | 182 | 4.8 | 16.1 | 0.00 | 3.25 | 3.25 | 100 | 1004.2 |
| 20260505233702 | 27 | 128 | 4.8 | 16.1 | 0.00 | 3.25 | 3.25 | 100 | 1004.3 |
| 20260505233602 | 27 | 193 | 6.4 | 16.1 | 0.00 | 3.25 | 3.25 | 100 | 1004.3 |
| 20260505233502 | 27 | 183 | 8.0 | 16.1 | 0.00 | 3.25 | 3.25 | 100 | 1004.3 |
| 20260505233402 | 27 | 172 | 8.0 | 16.1 | 0.00 | 3.25 | 3.25 | 100 | 1004.3 |
| 20260505233304 | 27 | 141 | 8.0 | 16.1 | 0.00 | 3.25 | 3.25 | 100 | 1004.3 |
| 20260505233202 | 27 | 165 | 8.0 | 16.1 | 0.00 | 3.25 | 3.25 | 100 | 1004.4 |
| 20260505233102 | 27 | 144 | 4.8 | 16.1 | 0.00 | 3.25 | 3.25 | 100 | 1004.4 |
| 20260505233004 | 27 | 148 | 6.4 | 16.1 | 0.00 | 3.25 | 3.25 | 100 | 1004.4 |
| 20260505232902 | 27 | 168 | 8.0 | 16.1 | 0.00 | 3.25 | 3.25 | 100 | 1004.4 |
| 20260505232802 | 27 | 92 | 8.0 | 16.1 | 0.00 | 3.25 | 3.25 | 100 | 1004.4 |
| 20260505232703 | 27 | 134 | 8.0 | 14.5 | 0.00 | 3.25 | 3.25 | 100 | 1004.4 |
| 20260505232602 | 27 | 128 | 6.4 | 14.5 | 0.00 | 3.25 | 3.25 | 100 | 1004.4 |
| 20260505232501 | 27 | 238 | 6.4 | 16.1 | 0.00 | 3.25 | 3.25 | 100 | 1004.3 |
| 20260505232402 | 27 | 158 | 4.8 | 16.1 | 0.00 | 3.25 | 3.25 | 100 | 1004.4 |
| 20260505232305 | 27 | 264 | 4.8 | 16.1 | 0.00 | 3.25 | 3.25 | 100 | 1004.4 |
| 20260505232202 | 27 | 162 | 4.8 | 16.1 | 0.00 | 3.25 | 3.25 | 100 | 1004.3 |
| 20260505232102 | 27 | 173 | 3.2 | 16.1 | 0.00 | 3.25 | 3.25 | 100 | 1004.4 |
| 20260505232003 | 27 | 192 | 3.2 | 16.1 | 0.00 | 3.25 | 3.25 | 100 | 1004.5 |
| 20260505231903 | 27 | 169 | 4.8 | 16.1 | 0.00 | 3.25 | 3.25 | 100 | 1004.5 |
| 20260505231802 | 27 | 169 | 6.4 | 16.1 | 0.00 | 3.25 | 3.25 | 100 | 1004.5 |
| 20260505231702 | 27 | 145 | 8.0 | 16.1 | 0.00 | 3.25 | 3.25 | 100 | 1004.4 |
| 20260505231603 | 27 | 190 | 6.4 | 16.1 | 0.00 | 3.25 | 3.25 | 100 | 1004.4 |
| 20260505231502 | 27 | 158 | 4.8 | 14.5 | 0.00 | 3.25 | 3.25 | 100 | 1004.4 |
| 20260505231403 | 27 | 164 | 3.2 | 11.3 | 0.00 | 3.25 | 3.25 | 100 | 1004.5 |
| 20260505231303 | 27 | 161 | 4.8 | 11.3 | 0.00 | 3.25 | 3.25 | 100 | 1004.5 |
| 20260505231201 | 27 | 159 | 4.8 | 11.3 | 0.00 | 3.25 | 3.25 | 100 | 1004.4 |
| 20260505231102 | 27 | 149 | 4.8 | 11.3 | 0.00 | 3.25 | 3.25 | 100 | 1004.4 |
| 20260505231003 | 27 | 179 | 4.8 | 11.3 | 0.00 | 3.25 | 3.25 | 100 | 1004.4 |
| 20260505230903 | 27 | 166 | 6.4 | 11.3 | 0.00 | 3.25 | 3.25 | 100 | 1004.4 |
| 20260505230801 | 27 | 157 | 6.4 | 11.3 | 0.00 | 3.25 | 3.25 | 100 | 1004.4 |
| 20260505230702 | 27 | 134 | 4.8 | 14.5 | 0.00 | 3.25 | 3.25 | 100 | 1004.4 |
| 20260505230602 | 27 | 152 | 3.2 | 27.4 | 0.00 | 3.25 | 3.25 | 100 | 1004.4 |
| 20260505230502 | 27 | 151 | 3.2 | 27.4 | 0.00 | 3.25 | 3.25 | 100 | 1004.4 |
| 20260505230402 | 27 | 141 | 6.4 | 27.4 | 0.00 | 3.25 | 3.25 | 100 | 1004.4 |
| 20260505230303 | 27 | 133 | 6.4 | 27.4 | 0.00 | 3.25 | 3.25 | 100 | 1004.4 |
| 20260505230202 | 27 | 175 | 4.8 | 27.4 | 0.00 | 3.25 | 3.25 | 100 | 1004.3 |
| 20260505230003 | 27 | 154 | 6.4 | 27.4 | 0.00 | 3.25 | 3.25 | 100 | 1004.3 |
| 20260505225902 | 27 | 210 | 6.4 | 27.4 | 0.00 | 3.25 | 3.25 | 100 | 1004.3 |
| 20260505225802 | 27 | 128 | 11.3 | 27.4 | 0.00 | 3.25 | 3.25 | 100 | 1004.2 |
| 20260505225702 | 27 | 154 | 11.3 | 27.4 | 0.00 | 3.25 | 3.25 | 100 | 1004.2 |
| 20260505225604 | 27 | 180 | 9.7 | 19.3 | 0.00 | 3.25 | 3.25 | 100 | 1004.1 |
| 20260505225502 | 27 | 134 | 8.0 | 19.3 | 0.00 | 3.25 | 3.25 | 100 | 1004.1 |
| 20260505225402 | 27 | 123 | 4.8 | 14.5 | 0.00 | 3.25 | 3.25 | 100 | 1004.1 |
| 20260505225305 | 28 | 142 | 6.4 | 14.5 | 0.00 | 3.25 | 3.25 | 100 | 1004.1 |
| 20260505225203 | 28 | 145 | 6.4 | 14.5 | 0.00 | 3.25 | 3.25 | 100 | 1004.1 |
| 20260505225104 | 28 | 121 | 8.0 | 14.5 | 0.00 | 3.25 | 3.25 | 100 | 1004.1 |
| 20260505225004 | 28 | 158 | 8.0 | 14.5 | 0.00 | 3.25 | 3.25 | 100 | 1004.2 |
| 20260505224901 | 28 | 165 | 8.0 | 14.5 | 0.00 | 3.25 | 3.25 | 100 | 1004.2 |
| 20260505224802 | 28 | 158 | 6.4 | 14.5 | 0.00 | 3.25 | 3.25 | 100 | 1004.3 |
| 20260505224703 | 28 | 144 | 6.4 | 14.5 | 0.00 | 3.25 | 3.25 | 100 | 1004.2 |
| 20260505224602 | 28 | 100 | 4.8 | 14.5 | 0.00 | 3.25 | 3.25 | 100 | 1004.2 |
| 20260505224504 | 28 | 162 | 4.8 | 14.5 | 0.00 | 3.25 | 3.25 | 100 | 1004.2 |
| 20260505224403 | 28 | 152 | 6.4 | 11.3 | 0.00 | 3.25 | 3.25 | 100 | 1004.2 |
| 20260505224303 | 28 | 178 | 8.0 | 11.3 | 0.00 | 3.25 | 3.25 | 100 | 1004.3 |
| 20260505224202 | 28 | 165 | 4.8 | 19.3 | 0.00 | 3.25 | 3.25 | 100 | 1004.3 |
| 20260505224103 | 28 | 200 | 4.8 | 19.3 | 0.00 | 3.25 | 3.25 | 100 | 1004.3 |
| 20260505224004 | 28 | 125 | 4.8 | 19.3 | 0.00 | 3.25 | 3.25 | 100 | 1004.3 |
| 20260505223903 | 27 | 135 | 6.4 | 19.3 | 0.00 | 3.25 | 3.25 | 100 | 1004.3 |
| 20260505223802 | 27 | 135 | 6.4 | 19.3 | 0.00 | 3.25 | 3.25 | 100 | 1004.3 |
| 20260505223701 | 27 | 135 | 6.4 | 19.3 | 0.00 | 3.25 | 3.25 | 100 | 1004.4 |
| 20260505223602 | 27 | 135 | 6.4 | 19.3 | 0.00 | 3.25 | 3.25 | 100 | 1004.3 |
| 20260505223502 | 27 | 148 | 6.4 | 19.3 | 0.00 | 3.25 | 3.25 | 100 | 1004.3 |
| 20260505223403 | 27 | 176 | 8.0 | 19.3 | 0.00 | 3.25 | 3.25 | 100 | 1004.3 |
| 20260505223301 | 27 | 133 | 8.0 | 19.3 | 0.00 | 3.25 | 3.25 | 100 | 1004.4 |
| 20260505223202 | 27 | 66 | 6.4 | 16.1 | 0.00 | 3.25 | 3.25 | 100 | 1004.3 |
| 20260505223100 | 27 | 178 | 6.4 | 16.1 | 0.00 | 3.25 | 3.25 | 100 | 1004.3 |
| 20260505222959 | 27 | 172 | 8.0 | 16.1 | 0.00 | 3.25 | 3.25 | 100 | 1004.4 |
| 20260505222900 | 27 | 176 | 8.0 | 16.1 | 0.00 | 3.25 | 3.25 | 100 | 1004.4 |
| 20260505222759 | 28 | 169 | 11.3 | 16.1 | 0.00 | 3.25 | 3.25 | 100 | 1004.4 |
| 20260505222658 | 28 | 175 | 9.7 | 16.1 | 0.00 | 3.25 | 3.25 | 100 | 1004.3 |
| 20260505222558 | 28 | 166 | 6.4 | 16.1 | 0.00 | 3.25 | 3.25 | 100 | 1004.4 |
| 20260505222459 | 28 | 180 | 8.0 | 16.1 | 0.00 | 3.25 | 3.25 | 100 | 1004.4 |
| 20260505222359 | 28 | 158 | 8.0 | 16.1 | 0.00 | 3.25 | 3.25 | 100 | 1004.3 |
| 20260505222258 | 28 | 164 | 8.0 | 14.5 | 0.00 | 3.25 | 3.25 | 100 | 1004.3 |
| 20260505222158 | 28 | 164 | 8.0 | 14.5 | 0.00 | 3.25 | 3.25 | 100 | 1004.4 |
| 20260505222059 | 28 | 171 | 6.4 | 14.5 | 0.00 | 3.25 | 3.25 | 100 | 1004.3 |
| 20260505221959 | 28 | 154 | 4.8 | 16.1 | 0.00 | 3.25 | 3.25 | 100 | 1004.4 |
| 20260505221859 | 28 | 154 | 6.4 | 16.1 | 0.00 | 3.25 | 3.25 | 100 | 1004.3 |
| 20260505221800 | 28 | 162 | 6.4 | 16.1 | 0.00 | 3.25 | 3.25 | 100 | 1004.3 |
| 20260505221700 | 28 | 189 | 6.4 | 16.1 | 0.00 | 3.25 | 3.25 | 100 | 1004.3 |
| 20260505221559 | 28 | 224 | 6.4 | 16.1 | 0.00 | 3.25 | 3.25 | 100 | 1004.4 |
| 20260505221459 | 28 | 159 | 4.8 | 19.3 | 0.00 | 3.25 | 3.25 | 100 | 1004.4 |
| 20260505221359 | 28 | 178 | 6.4 | 19.3 | 0.00 | 3.25 | 3.25 | 100 | 1004.3 |
| 20260505221259 | 28 | 149 | 6.4 | 19.3 | 0.00 | 3.25 | 3.25 | 100 | 1004.3 |
| 20260505221159 | 28 | 109 | 6.4 | 19.3 | 0.00 | 3.25 | 3.25 | 100 | 1004.3 |
| 20260505221059 | 28 | 154 | 4.8 | 19.3 | 0.00 | 3.25 | 3.25 | 100 | 1004.4 |
| 20260505220958 | 28 | 155 | 4.8 | 19.3 | 0.00 | 3.25 | 3.25 | 100 | 1004.4 |
| 20260505220859 | 28 | 161 | 4.8 | 19.3 | 0.00 | 3.25 | 3.25 | 100 | 1004.4 |
| 20260505220759 | 28 | 159 | 3.2 | 19.3 | 0.00 | 3.25 | 3.25 | 100 | 1004.4 |
| 20260505220658 | 28 | 173 | 6.4 | 19.3 | 0.00 | 3.25 | 3.25 | 100 | 1004.4 |
| 20260505220558 | 28 | 169 | 8.0 | 19.3 | 0.00 | 3.25 | 3.25 | 100 | 1004.4 |
| 20260505220459 | 28 | 175 | 6.4 | 14.5 | 0.00 | 3.25 | 3.25 | 100 | 1004.5 |
| 20260505220359 | 28 | 176 | 3.2 | 14.5 | 0.00 | 3.25 | 3.25 | 100 | 1004.5 |
| 20260505220258 | 28 | 214 | 6.4 | 14.5 | 0.00 | 3.25 | 3.25 | 100 | 1004.5 |
| 20260505220159 | 28 | 190 | 4.8 | 14.5 | 0.00 | 3.25 | 3.25 | 100 | 1004.5 |
| 20260505220059 | 28 | 190 | 4.8 | 14.5 | 0.00 | 3.25 | 3.25 | 100 | 1004.5 |
| 20260505215958 | 28 | 192 | 8.0 | 14.5 | 0.00 | 3.25 | 3.25 | 100 | 1004.5 |
| 20260505215859 | 28 | 159 | 8.0 | 14.5 | 0.00 | 3.25 | 3.25 | 100 | 1004.5 |
| 20260505215800 | 28 | 164 | 6.4 | 14.5 | 0.00 | 3.25 | 3.25 | 100 | 1004.6 |
| 20260505215657 | 28 | 207 | 4.8 | 14.5 | 0.00 | 3.25 | 3.25 | 100 | 1004.6 |
| 20260505215558 | 28 | 148 | 4.8 | 14.5 | 0.00 | 3.25 | 3.25 | 100 | 1004.7 |
| 20260505215459 | 28 | 144 | 6.4 | 14.5 | 0.00 | 3.25 | 3.25 | 100 | 1004.7 |
| 20260505215358 | 28 | 188 | 6.4 | 14.5 | 0.00 | 3.25 | 3.25 | 100 | 1004.7 |
| 20260505215300 | 28 | 157 | 3.2 | 14.5 | 0.00 | 3.25 | 3.25 | 100 | 1004.6 |
| 20260505215157 | 28 | 138 | 3.2 | 14.5 | 0.00 | 3.25 | 3.25 | 100 | 1004.6 |
| 20260505215059 | 28 | 117 | 6.4 | 14.5 | 0.00 | 3.25 | 3.25 | 100 | 1004.6 |
| 20260505214957 | 28 | 161 | 6.4 | 14.5 | 0.00 | 3.25 | 3.25 | 100 | 1004.7 |
| 20260505214859 | 28 | 180 | 4.8 | 14.5 | 0.00 | 3.25 | 3.25 | 100 | 1004.7 |
| 20260505214757 | 28 | 151 | 4.8 | 14.5 | 0.00 | 3.25 | 3.25 | 100 | 1004.6 |
| 20260505214658 | 28 | 147 | 8.0 | 16.1 | 0.00 | 3.25 | 3.25 | 100 | 1004.7 |
| 20260505214559 | 28 | 147 | 8.0 | 16.1 | 0.00 | 3.25 | 3.25 | 100 | 1004.6 |
| 20260505214458 | 28 | 169 | 8.0 | 16.1 | 0.00 | 3.25 | 3.25 | 100 | 1004.6 |
| 20260505214358 | 28 | 169 | 6.4 | 16.1 | 0.00 | 3.25 | 3.25 | 100 | 1004.6 |
| 20260505214257 | 28 | 158 | 4.8 | 16.1 | 0.00 | 3.25 | 3.25 | 100 | 1004.7 |
| 20260505214159 | 28 | 172 | 3.2 | 16.1 | 0.00 | 3.25 | 3.25 | 100 | 1004.7 |
| 20260505214058 | 28 | 135 | 4.8 | 16.1 | 0.00 | 3.25 | 3.25 | 100 | 1004.7 |
| 20260505213957 | 28 | 182 | 6.4 | 16.1 | 0.00 | 3.25 | 3.25 | 100 | 1004.7 |
| 20260505213858 | 28 | 157 | 6.4 | 17.7 | 0.00 | 3.25 | 3.25 | 100 | 1004.7 |
| 20260505213759 | 28 | 172 | 6.4 | 17.7 | 0.00 | 3.25 | 3.25 | 100 | 1004.8 |
| 20260505213658 | 28 | 162 | 3.2 | 17.7 | 0.00 | 3.25 | 3.25 | 100 | 1004.8 |
| 20260505213558 | 28 | 176 | 4.8 | 17.7 | 0.00 | 3.25 | 3.25 | 100 | 1004.8 |
| 20260505213458 | 28 | 176 | 4.8 | 17.7 | 0.00 | 3.25 | 3.25 | 100 | 1004.7 |
| 20260505213358 | 28 | 176 | 4.8 | 17.7 | 0.00 | 3.25 | 3.25 | 100 | 1004.7 |
| 20260505213258 | 28 | 176 | 4.8 | 17.7 | 0.00 | 3.25 | 3.25 | 100 | 1004.8 |
| 20260505213158 | 28 | 168 | 6.4 | 17.7 | 0.00 | 3.25 | 3.25 | 100 | 1004.7 |
| 20260505213057 | 28 | 180 | 6.4 | 17.7 | 0.00 | 3.25 | 3.25 | 100 | 1004.8 |
| 20260505212957 | 28 | 141 | 6.4 | 17.7 | 0.00 | 3.25 | 3.25 | 100 | 1004.7 |
| 20260505212858 | 28 | 157 | 4.8 | 17.7 | 0.00 | 3.25 | 3.25 | 100 | 1004.8 |
| 20260505212757 | 28 | 179 | 4.8 | 17.7 | 0.00 | 3.25 | 3.25 | 100 | 1004.8 |
| 20260505212659 | 28 | 165 | 4.8 | 17.7 | 0.00 | 3.25 | 3.25 | 100 | 1004.8 |
| 20260505212558 | 28 | 155 | 1.6 | 17.7 | 0.00 | 3.25 | 3.25 | 100 | 1004.9 |
| 20260505212458 | 28 | 185 | 6.4 | 17.7 | 0.00 | 3.25 | 3.25 | 100 | 1004.9 |
| 20260505212357 | 28 | 178 | 8.0 | 17.7 | 0.00 | 3.25 | 3.25 | 100 | 1004.8 |
| 20260505212256 | 28 | 164 | 6.4 | 16.1 | 0.00 | 3.25 | 3.25 | 100 | 1004.8 |
| 20260505212158 | 28 | 180 | 6.4 | 16.1 | 0.00 | 3.25 | 3.25 | 100 | 1004.8 |
| 20260505212056 | 28 | 176 | 4.8 | 8.0 | 0.00 | 3.25 | 3.25 | 100 | 1004.7 |
| 20260505211958 | 28 | 157 | 6.4 | 8.0 | 0.00 | 3.25 | 3.25 | 100 | 1004.8 |
| 20260505211856 | 28 | 149 | 4.8 | 8.0 | 0.00 | 3.25 | 3.25 | 100 | 1004.8 |
| 20260505211758 | 28 | 134 | 3.2 | 8.0 | 0.00 | 3.25 | 3.25 | 100 | 1004.8 |
| 20260505211658 | 28 | 175 | 1.6 | 11.3 | 0.00 | 3.25 | 3.25 | 100 | 1004.8 |
| 20260505211557 | 28 | 162 | 1.6 | 11.3 | 0.00 | 3.25 | 3.25 | 100 | 1004.9 |
| 20260505211457 | 28 | 162 | 3.2 | 14.5 | 0.00 | 3.25 | 3.25 | 100 | 1004.9 |
| 20260505211357 | 28 | 165 | 3.2 | 14.5 | 0.00 | 3.25 | 3.25 | 100 | 1004.9 |
| 20260505211257 | 28 | 157 | 3.2 | 14.5 | 0.00 | 3.25 | 3.25 | 100 | 1004.9 |
| 20260505211157 | 28 | 185 | 6.4 | 14.5 | 0.00 | 3.25 | 3.25 | 100 | 1004.9 |
| 20260505211057 | 28 | 185 | 6.4 | 14.5 | 0.00 | 3.25 | 3.25 | 100 | 1004.9 |
| 20260505210958 | 28 | 185 | 6.4 | 14.5 | 0.00 | 3.25 | 3.25 | 100 | 1004.9 |
| 20260505210858 | 28 | 185 | 6.4 | 14.5 | 0.00 | 3.25 | 3.25 | 100 | 1004.9 |
| 20260505210757 | 28 | 185 | 6.4 | 14.5 | 0.00 | 3.25 | 3.25 | 100 | 1005.0 |
| 20260505210656 | 28 | 158 | 8.0 | 14.5 | 0.00 | 3.25 | 3.25 | 100 | 1005.0 |
| 20260505210557 | 28 | 168 | 6.4 | 14.5 | 0.00 | 3.25 | 3.25 | 100 | 1005.1 |
| 20260505210458 | 28 | 142 | 3.2 | 11.3 | 0.00 | 3.25 | 3.25 | 100 | 1005.0 |
| 20260505210357 | 28 | 135 | 3.2 | 11.3 | 0.00 | 3.25 | 3.25 | 100 | 1005.0 |
| 20260505210256 | 28 | 103 | 3.2 | 11.3 | 0.00 | 3.25 | 3.25 | 100 | 1005.0 |
| 20260505210156 | 28 | 179 | 3.2 | 11.3 | 0.00 | 3.25 | 3.25 | 100 | 1005.1 |
| 20260505210056 | 28 | 154 | 3.2 | 11.3 | 0.00 | 3.25 | 3.25 | 100 | 1005.0 |
| 20260505205958 | 28 | 162 | 4.8 | 11.3 | 0.00 | 3.25 | 3.25 | 100 | 1005.1 |
| 20260505205857 | 28 | 190 | 3.2 | 11.3 | 0.00 | 3.25 | 3.25 | 100 | 1005.1 |
| 20260505205757 | 28 | 169 | 4.8 | 11.3 | 0.00 | 3.25 | 3.25 | 100 | 1005.1 |
| 20260505205657 | 28 | 176 | 4.8 | 11.3 | 0.00 | 3.25 | 3.25 | 100 | 1005.1 |
| 20260505205557 | 28 | 166 | 4.8 | 11.3 | 0.00 | 3.25 | 3.25 | 100 | 1005.1 |
| 20260505205457 | 28 | 159 | 6.4 | 11.3 | 0.00 | 3.25 | 3.25 | 100 | 1005.1 |
| 20260505205357 | 28 | 159 | 6.4 | 11.3 | 0.00 | 3.25 | 3.25 | 100 | 1005.1 |
| 20260505205305 | 28 | 159 | 6.4 | 11.3 | 0.00 | 3.25 | 3.25 | 100 | 1005.1 |
| 20260505205158 | 28 | 227 | 4.8 | 11.3 | 0.00 | 3.25 | 3.25 | 100 | 1005.1 |
| 20260505205056 | 28 | 197 | 4.8 | 11.3 | 0.00 | 3.25 | 3.25 | 100 | 1005.2 |
| 20260505204956 | 28 | 135 | 6.4 | 11.3 | 0.00 | 3.25 | 3.25 | 100 | 1005.2 |
| 20260505204857 | 28 | 200 | 6.4 | 16.1 | 0.00 | 3.25 | 3.25 | 100 | 1005.2 |
| 20260505204758 | 28 | 158 | 3.2 | 16.1 | 0.00 | 3.25 | 3.25 | 100 | 1005.2 |
| 20260505204657 | 28 | 192 | 4.8 | 16.1 | 0.00 | 3.25 | 3.25 | 100 | 1005.2 |
| 20260505204558 | 28 | 188 | 6.4 | 16.1 | 0.00 | 3.25 | 3.25 | 100 | 1005.2 |
| 20260505204455 | 28 | 152 | 4.8 | 16.1 | 0.00 | 3.25 | 3.25 | 100 | 1005.1 |
| 20260505204351 | 28 | 166 | 6.4 | 16.1 | 0.00 | 3.25 | 3.25 | 100 | 1005.1 |
| 20260505204232 | 28 | 219 | 4.8 | 16.1 | 0.00 | 3.25 | 3.25 | 100 | 1005.2 |
| 20260505204132 | 28 | 197 | 8.0 | 16.1 | 0.00 | 3.25 | 3.25 | 100 | 1005.2 |
| 20260505204032 | 28 | 207 | 8.0 | 16.1 | 0.00 | 3.25 | 3.25 | 100 | 1005.2 |
| 20260505203928 | 28 | 240 | 8.0 | 16.1 | 0.00 | 3.25 | 3.25 | 100 | 1005.1 |
| 20260505203826 | 28 | 203 | 8.0 | 14.5 | 0.00 | 3.25 | 3.25 | 100 | 1005.2 |
| 20260505203722 | 28 | 219 | 11.3 | 14.5 | 0.00 | 3.25 | 3.25 | 100 | 1005.2 |
| 20260505203621 | 28 | 221 | 9.7 | 14.5 | 0.00 | 3.25 | 3.25 | 100 | 1005.2 |
| 20260505203510 | 28 | 213 | 8.0 | 14.5 | 0.00 | 3.25 | 3.25 | 100 | 1005.3 |
| 20260505203408 | 28 | 159 | 8.0 | 14.5 | 0.00 | 3.25 | 3.25 | 100 | 1005.3 |
| 20260505203304 | 28 | 134 | 6.4 | 14.5 | 0.00 | 3.25 | 3.25 | 100 | 1005.3 |
| 20260505203204 | 28 | 162 | 4.8 | 11.3 | 0.00 | 3.25 | 3.25 | 100 | 1005.3 |
| 20260505203103 | 28 | 190 | 3.2 | 11.3 | 0.00 | 3.25 | 3.25 | 100 | 1005.3 |
| 20260505203002 | 28 | 224 | 4.8 | 11.3 | 0.00 | 3.25 | 3.25 | 100 | 1005.4 |
| 20260505202902 | 28 | 158 | 4.8 | 11.3 | 0.00 | 3.25 | 3.25 | 100 | 1005.4 |
| 20260505202803 | 28 | 164 | 6.4 | 11.3 | 0.00 | 3.25 | 3.25 | 100 | 1005.4 |
| 20260505202703 | 28 | 154 | 6.4 | 11.3 | 0.00 | 3.25 | 3.25 | 100 | 1005.4 |
| 20260505202603 | 28 | 195 | 6.4 | 11.3 | 0.00 | 3.25 | 3.25 | 100 | 1005.4 |
| 20260505202504 | 28 | 164 | 6.4 | 11.3 | 0.00 | 3.25 | 3.25 | 100 | 1005.4 |
| 20260505202403 | 28 | 137 | 8.0 | 11.3 | 0.00 | 3.25 | 3.25 | 100 | 1005.4 |
| 20260505202306 | 29 | 133 | 6.4 | 14.5 | 0.00 | 3.25 | 3.25 | 100 | 1005.4 |
| 20260505202203 | 29 | 142 | 8.0 | 16.1 | 0.00 | 3.25 | 3.25 | 100 | 1005.5 |
| 20260505202103 | 29 | 161 | 9.7 | 16.1 | 0.00 | 3.25 | 3.25 | 100 | 1005.5 |
| 20260505202002 | 29 | 180 | 6.4 | 16.1 | 0.00 | 3.25 | 3.25 | 100 | 1005.5 |
| 20260505201903 | 29 | 152 | 4.8 | 16.1 | 0.00 | 3.25 | 3.25 | 100 | 1005.5 |
| 20260505201802 | 29 | 212 | 3.2 | 16.1 | 0.00 | 3.25 | 3.25 | 100 | 1005.5 |
| 20260505201704 | 28 | 120 | 3.2 | 16.1 | 0.00 | 3.25 | 3.25 | 100 | 1005.5 |
| 20260505201603 | 28 | 165 | 3.2 | 19.3 | 0.00 | 3.25 | 3.25 | 100 | 1005.6 |
| 20260505201503 | 28 | 173 | 4.8 | 19.3 | 0.00 | 3.25 | 3.25 | 100 | 1005.6 |
| 20260505201402 | 28 | 176 | 8.0 | 19.3 | 0.00 | 3.25 | 3.25 | 100 | 1005.6 |
| 20260505201303 | 28 | 169 | 6.4 | 19.3 | 0.00 | 3.25 | 3.25 | 100 | 1005.6 |
| 20260505201203 | 28 | 166 | 4.8 | 19.3 | 0.00 | 3.25 | 3.25 | 100 | 1005.6 |
| 20260505201102 | 28 | 152 | 8.0 | 24.1 | 0.00 | 3.25 | 3.25 | 100 | 1005.7 |
| 20260505201003 | 28 | 151 | 11.3 | 24.1 | 0.00 | 3.25 | 3.25 | 100 | 1005.7 |
| 20260505200903 | 28 | 210 | 9.7 | 24.1 | 0.00 | 3.25 | 3.25 | 100 | 1005.6 |
| 20260505200804 | 28 | 251 | 9.7 | 24.1 | 0.00 | 3.25 | 3.25 | 100 | 1005.7 |
| 20260505200703 | 28 | 210 | 8.0 | 24.1 | 0.00 | 3.25 | 3.25 | 100 | 1005.7 |
| 20260505200602 | 28 | 244 | 6.4 | 24.1 | 0.00 | 3.25 | 3.25 | 100 | 1005.7 |
| 20260505200503 | 28 | 203 | 6.4 | 24.1 | 0.00 | 3.25 | 3.25 | 100 | 1005.8 |
| 20260505200403 | 28 | 237 | 9.7 | 24.1 | 0.00 | 3.25 | 3.25 | 100 | 1005.7 |
| 20260505200303 | 28 | 157 | 12.9 | 24.1 | 0.00 | 3.25 | 3.25 | 100 | 1005.8 |
| 20260505200203 | 28 | 235 | 11.3 | 24.1 | 0.00 | 3.25 | 3.25 | 100 | 1005.7 |
| 20260505200057 | 28 | 148 | 8.0 | 22.5 | 0.00 | 3.25 | 3.25 | 100 | 1005.7 |
| 20260505195957 | 28 | 168 | 9.7 | 22.5 | 0.00 | 3.25 | 3.25 | 100 | 1005.8 |
| 20260505195855 | 28 | 185 | 11.3 | 22.5 | 0.00 | 3.25 | 3.25 | 100 | 1005.8 |
| 20260505195755 | 28 | 254 | 11.3 | 22.5 | 0.00 | 3.25 | 3.25 | 100 | 1005.9 |
| 20260505195656 | 28 | 200 | 8.0 | 19.3 | 0.00 | 3.25 | 3.25 | 100 | 1005.9 |
| 20260505195554 | 28 | 231 | 8.0 | 19.3 | 0.00 | 3.25 | 3.25 | 100 | 1005.9 |
| 20260505195456 | 28 | 183 | 8.0 | 19.3 | 0.00 | 3.25 | 3.25 | 100 | 1005.8 |
| 20260505195354 | 28 | 161 | 11.3 | 24.1 | 0.00 | 3.25 | 3.25 | 100 | 1005.9 |
| 20260505195256 | 28 | 223 | 11.3 | 24.1 | 0.00 | 3.25 | 3.25 | 100 | 1005.8 |
| 20260505195155 | 28 | 164 | 8.0 | 24.1 | 0.00 | 3.25 | 3.25 | 100 | 1005.8 |
| 20260505195054 | 28 | 189 | 9.7 | 24.1 | 0.00 | 3.25 | 3.25 | 100 | 1005.8 |
| 20260505194954 | 28 | 206 | 9.7 | 24.1 | 0.00 | 3.25 | 3.25 | 100 | 1005.8 |
| 20260505194855 | 28 | 252 | 9.7 | 24.1 | 0.00 | 3.25 | 3.25 | 100 | 1005.8 |
| 20260505194755 | 28 | 243 | 9.7 | 24.1 | 0.00 | 3.25 | 3.25 | 100 | 1005.7 |
| 20260505194654 | 28 | 243 | 8.0 | 24.1 | 0.00 | 3.25 | 3.25 | 100 | 1005.7 |
| 20260505194554 | 28 | 216 | 9.7 | 24.1 | 0.00 | 3.25 | 3.25 | 100 | 1005.8 |
| 20260505194456 | 28 | 195 | 8.0 | 24.1 | 0.00 | 3.25 | 3.25 | 100 | 1005.8 |
| 20260505194356 | 28 | 243 | 4.8 | 19.3 | 0.00 | 3.25 | 3.25 | 100 | 1005.8 |
| 20260505194255 | 27 | 224 | 6.4 | 19.3 | 0.00 | 3.25 | 3.25 | 100 | 1005.7 |
| 20260505194154 | 27 | 161 | 4.8 | 20.9 | 0.00 | 3.25 | 3.25 | 100 | 1005.7 |
| 20260505194056 | 27 | 178 | 6.4 | 20.9 | 0.00 | 3.25 | 3.25 | 100 | 1005.7 |
| 20260505193955 | 27 | 216 | 9.7 | 20.9 | 0.00 | 3.25 | 3.25 | 100 | 1005.8 |
| 20260505193855 | 27 | 206 | 8.0 | 20.9 | 0.00 | 3.25 | 3.25 | 100 | 1005.9 |
| 20260505193756 | 27 | 186 | 9.7 | 20.9 | 0.00 | 3.25 | 3.25 | 100 | 1005.9 |
| 20260505193656 | 27 | 165 | 12.9 | 20.9 | 0.00 | 3.25 | 3.25 | 100 | 1005.9 |
| 20260505193556 | 27 | 179 | 11.3 | 20.9 | 0.00 | 3.25 | 3.25 | 100 | 1006.0 |
| 20260505193454 | 27 | 217 | 11.3 | 20.9 | 0.00 | 3.25 | 3.25 | 100 | 1006.0 |
| 20260505193355 | 27 | 217 | 12.9 | 20.9 | 0.00 | 3.25 | 3.25 | 100 | 1006.0 |
| 20260505193255 | 27 | 210 | 12.9 | 20.9 | 0.00 | 3.25 | 3.25 | 100 | 1006.1 |
| 20260505193154 | 27 | 230 | 9.7 | 17.7 | 0.00 | 3.25 | 3.25 | 100 | 1006.1 |
| 20260505193054 | 27 | 223 | 8.0 | 11.3 | 0.00 | 3.25 | 3.25 | 100 | 1006.1 |
| 20260505192954 | 27 | 214 | 8.0 | 11.3 | 0.00 | 3.25 | 3.25 | 100 | 1006.1 |
| 20260505192855 | 27 | 271 | 6.4 | 11.3 | 0.00 | 3.25 | 3.25 | 100 | 1006.2 |
| 20260505192755 | 27 | 248 | 6.4 | 11.3 | 0.00 | 3.25 | 3.25 | 100 | 1006.2 |
| 20260505192656 | 27 | 161 | 6.4 | 11.3 | 0.00 | 3.25 | 3.25 | 100 | 1006.2 |
| 20260505192554 | 27 | 164 | 4.8 | 9.7 | 0.00 | 3.25 | 3.25 | 100 | 1006.2 |
| 20260505192455 | 27 | 204 | 4.8 | 9.7 | 0.00 | 3.25 | 3.25 | 100 | 1006.2 |
| 20260505192355 | 27 | 158 | 4.8 | 9.7 | 0.00 | 3.25 | 3.25 | 100 | 1006.2 |
| 20260505192254 | 27 | 171 | 6.4 | 9.7 | 0.00 | 3.25 | 3.25 | 100 | 1006.2 |
| 20260505192155 | 27 | 176 | 4.8 | 17.7 | 0.00 | 3.25 | 3.25 | 100 | 1006.1 |
| 20260505192054 | 27 | 137 | 3.2 | 17.7 | 0.00 | 3.25 | 3.25 | 100 | 1006.2 |
| 20260505191954 | 27 | 165 | 1.6 | 17.7 | 0.00 | 3.25 | 3.25 | 100 | 1006.1 |
| 20260505191856 | 27 | 183 | 1.6 | 17.7 | 0.00 | 3.25 | 3.25 | 100 | 1006.2 |
| 20260505191755 | 27 | 185 | 3.2 | 17.7 | 0.00 | 3.25 | 3.25 | 100 | 1006.2 |
| 20260505191655 | 27 | 149 | 4.8 | 17.7 | 0.00 | 3.25 | 3.25 | 100 | 1006.3 |
| 20260505191555 | 27 | 131 | 6.4 | 17.7 | 0.00 | 3.25 | 3.25 | 100 | 1006.2 |
| 20260505191455 | 27 | 155 | 3.2 | 17.7 | 0.00 | 3.25 | 3.25 | 100 | 1006.2 |
| 20260505191355 | 27 | 154 | 4.8 | 17.7 | 0.00 | 3.25 | 3.25 | 100 | 1006.2 |
| 20260505191254 | 27 | 155 | 8.0 | 17.7 | 0.00 | 3.25 | 3.25 | 100 | 1006.3 |
| 20260505191155 | 27 | 213 | 9.7 | 16.1 | 0.00 | 3.25 | 3.25 | 100 | 1006.2 |
| 20260505191055 | 27 | 169 | 9.7 | 16.1 | 0.00 | 3.25 | 3.25 | 100 | 1006.2 |
| 20260505190953 | 27 | 193 | 8.0 | 16.1 | 0.00 | 3.25 | 3.25 | 100 | 1006.3 |
| 20260505190855 | 27 | 206 | 6.4 | 16.1 | 3.25 | 3.25 | 3.25 | 100 | 1006.3 |
| 20260505190755 | 27 | 72 | 4.8 | 16.1 | 3.25 | 3.25 | 3.25 | 100 | 1006.3 |
| 20260505190654 | 27 | 190 | 8.0 | 16.1 | 3.25 | 3.25 | 3.25 | 100 | 1006.4 |
| 20260505190555 | 27 | 196 | 8.0 | 20.9 | 3.25 | 3.25 | 3.25 | 100 | 1006.4 |
| 20260505190455 | 27 | 230 | 8.0 | 20.9 | 3.25 | 3.25 | 3.25 | 100 | 1006.4 |
| 20260505190354 | 27 | 161 | 6.4 | 20.9 | 3.25 | 3.25 | 3.25 | 100 | 1006.4 |
| 20260505190254 | 27 | 161 | 6.4 | 20.9 | 3.25 | 3.25 | 3.25 | 100 | 1006.4 |
| 20260505190131 | 27 | 176 | 6.4 | 20.9 | 3.25 | 3.25 | 3.25 | 100 | 1006.4 |
| 20260505190019 | 26 | 166 | 6.4 | 20.9 | 3.25 | 3.25 | 3.25 | 100 | 1006.5 |
| 20260505185909 | 27 | 197 | 8.0 | 20.9 | 3.25 | 3.25 | 3.25 | 100 | 1006.4 |
| 20260505185808 | 27 | 209 | 12.9 | 20.9 | 3.25 | 3.25 | 3.25 | 100 | 1006.4 |
| 20260505185704 | 27 | 165 | 12.9 | 20.9 | 3.25 | 3.25 | 3.25 | 100 | 1006.4 |
| 20260505185602 | 27 | 221 | 11.3 | 19.3 | 3.25 | 3.25 | 3.25 | 100 | 1006.4 |
| 20260505185503 | 27 | 257 | 9.7 | 16.1 | 3.25 | 3.25 | 3.25 | 100 | 1006.4 |
| 20260505185404 | 27 | 234 | 9.7 | 16.1 | 3.25 | 3.25 | 3.25 | 100 | 1006.4 |
| 20260505185304 | 27 | 158 | 8.0 | 16.1 | 3.25 | 3.25 | 3.25 | 100 | 1006.4 |
| 20260505185203 | 27 | 213 | 9.7 | 16.1 | 3.25 | 3.25 | 3.25 | 100 | 1006.4 |
| 20260505185103 | 27 | 214 | 8.0 | 16.1 | 3.25 | 3.25 | 3.25 | 100 | 1006.4 |
| 20260505185003 | 27 | 188 | 4.8 | 9.7 | 3.25 | 3.25 | 3.25 | 100 | 1006.3 |
| 20260505184902 | 27 | 206 | 6.4 | 9.7 | 3.25 | 3.25 | 3.25 | 100 | 1006.4 |
| 20260505184803 | 27 | 248 | 6.4 | 9.7 | 3.25 | 3.25 | 3.25 | 100 | 1006.4 |
| 20260505184703 | 27 | 175 | 4.8 | 9.7 | 3.25 | 3.25 | 3.25 | 100 | 1006.4 |
| 20260505184603 | 27 | 166 | 4.8 | 9.7 | 3.25 | 3.25 | 3.25 | 100 | 1006.4 |
| 20260505184503 | 26 | 173 | 4.8 | 9.7 | 3.25 | 3.25 | 3.25 | 100 | 1006.3 |
| 20260505184403 | 26 | 209 | 3.2 | 9.7 | 3.25 | 3.25 | 3.25 | 100 | 1006.4 |
| 20260505184303 | 26 | 206 | 3.2 | 9.7 | 3.25 | 3.25 | 3.25 | 100 | 1006.4 |
| 20260505184202 | 26 | 192 | 6.4 | 9.7 | 3.25 | 3.25 | 3.25 | 100 | 1006.4 |
| 20260505184102 | 26 | 192 | 6.4 | 14.5 | 3.25 | 3.25 | 3.25 | 100 | 1006.4 |
| 20260505184002 | 26 | 192 | 6.4 | 19.3 | 3.25 | 3.25 | 3.25 | 100 | 1006.5 |
| 20260505183903 | 26 | 192 | 6.4 | 19.3 | 3.25 | 3.25 | 3.25 | 100 | 1006.5 |
| 20260505183803 | 26 | 192 | 6.4 | 19.3 | 3.25 | 3.25 | 3.25 | 100 | 1006.5 |
| 20260505183702 | 26 | 192 | 6.4 | 19.3 | 3.25 | 3.25 | 3.25 | 100 | 1006.4 |
| 20260505183603 | 26 | 192 | 6.4 | 19.3 | 3.25 | 3.25 | 3.25 | 100 | 1006.5 |
| 20260505183503 | 26 | 207 | 6.4 | 19.3 | 3.25 | 3.25 | 3.25 | 100 | 1006.5 |
| 20260505183402 | 26 | 203 | 6.4 | 19.3 | 3.25 | 3.25 | 3.25 | 100 | 1006.6 |
| 20260505183302 | 26 | 209 | 8.0 | 19.3 | 3.25 | 3.25 | 3.25 | 100 | 1006.6 |
| 20260505183204 | 26 | 213 | 11.3 | 19.3 | 3.25 | 3.25 | 3.25 | 100 | 1006.5 |
| 20260505183103 | 26 | 204 | 9.7 | 19.3 | 3.25 | 3.25 | 3.25 | 100 | 1006.5 |
| 20260505183003 | 26 | 178 | 6.4 | 16.1 | 3.25 | 3.25 | 3.25 | 100 | 1006.5 |
| 20260505182903 | 26 | 176 | 4.8 | 16.1 | 3.25 | 3.25 | 3.25 | 100 | 1006.4 |
| 20260505182803 | 26 | 176 | 4.8 | 16.1 | 3.25 | 3.25 | 3.25 | 100 | 1006.5 |
| 20260505182703 | 26 | 213 | 6.4 | 19.3 | 3.25 | 3.25 | 3.25 | 100 | 1006.5 |
| 20260505182603 | 26 | 221 | 8.0 | 19.3 | 3.25 | 3.25 | 3.25 | 100 | 1006.5 |
| 20260505182503 | 26 | 161 | 6.4 | 22.5 | 3.25 | 3.25 | 3.25 | 100 | 1006.5 |
| 20260505182402 | 26 | 149 | 6.4 | 22.5 | 3.25 | 3.25 | 3.25 | 100 | 1006.5 |
| 20260505182305 | 26 | 180 | 4.8 | 22.5 | 3.25 | 3.25 | 3.25 | 100 | 1006.5 |
| 20260505182203 | 26 | 217 | 8.0 | 22.5 | 3.25 | 3.25 | 3.25 | 100 | 1006.4 |
| 20260505182104 | 26 | 217 | 8.0 | 22.5 | 3.25 | 3.25 | 3.25 | 100 | 1006.5 |
| 20260505182004 | 26 | 217 | 8.0 | 22.5 | 3.25 | 3.25 | 3.25 | 100 | 1006.4 |
| 20260505181903 | 26 | 217 | 8.0 | 22.5 | 3.25 | 3.25 | 3.25 | 100 | 1006.5 |
| 20260505181802 | 26 | 149 | 8.0 | 22.5 | 3.25 | 3.25 | 3.25 | 100 | 1006.4 |
| 20260505181703 | 26 | 213 | 11.3 | 22.5 | 3.25 | 3.25 | 3.25 | 100 | 1006.5 |
| 20260505181603 | 26 | 179 | 14.5 | 22.5 | 3.25 | 3.25 | 3.25 | 100 | 1006.4 |
| 20260505181503 | 26 | 241 | 11.3 | 20.9 | 3.25 | 3.25 | 3.25 | 100 | 1006.5 |
| 20260505181401 | 26 | 162 | 8.0 | 16.1 | 3.25 | 3.25 | 3.25 | 100 | 1006.5 |
| 20260505181302 | 26 | 165 | 8.0 | 16.1 | 3.25 | 3.25 | 3.25 | 100 | 1006.5 |
| 20260505181203 | 26 | 219 | 9.7 | 16.1 | 3.25 | 3.25 | 3.25 | 100 | 1006.5 |
| 20260505181102 | 26 | 149 | 9.7 | 16.1 | 3.25 | 3.25 | 3.25 | 100 | 1006.6 |
| 20260505181002 | 26 | 237 | 11.3 | 16.1 | 3.25 | 0.00 | 0.00 | 100 | 1006.6 |
| 20260505180902 | 26 | 231 | 11.3 | 16.1 | 0.00 | 0.00 | 0.00 | 100 | 1006.5 |
| 20260505180804 | 26 | 220 | 8.0 | 16.1 | 0.00 | 0.00 | 0.00 | 100 | 1006.6 |
| 20260505180704 | 26 | 254 | 6.4 | 16.1 | 0.00 | 0.00 | 0.00 | 100 | 1006.6 |
| 20260505180604 | 26 | 217 | 9.7 | 16.1 | 0.00 | 0.00 | 0.00 | 100 | 1006.6 |
| 20260505180502 | 26 | 179 | 14.5 | 16.1 | 0.00 | 0.00 | 0.00 | 100 | 1006.6 |
| 20260505180403 | 26 | 157 | 14.5 | 16.1 | 0.00 | 0.00 | 0.00 | 100 | 1006.6 |
| 20260505180302 | 26 | 200 | 6.4 | 16.1 | 0.00 | 0.00 | 0.00 | 100 | 1006.6 |
| 20260505180202 | 26 | 245 | 4.8 | 16.1 | 0.00 | 0.00 | 0.00 | 100 | 1006.5 |
| 20260505180005 | 26 | 237 | 4.8 | 16.1 | 0.00 | 0.00 | 0.00 | 100 | 1006.5 |
| 20260505175902 | 26 | 214 | 6.4 | 16.1 | 0.00 | 0.00 | 0.00 | 100 | 1006.6 |
| 20260505175802 | 26 | 217 | 8.0 | 16.1 | 0.00 | 0.00 | 0.00 | 100 | 1006.5 |
| 20260505175703 | 26 | 183 | 6.4 | 14.5 | 0.00 | 0.00 | 0.00 | 100 | 1006.5 |
| 20260505175602 | 25 | 238 | 6.4 | 14.5 | 0.00 | 0.00 | 0.00 | 100 | 1006.6 |
| 20260505175504 | 25 | 207 | 4.8 | 14.5 | 0.00 | 0.00 | 0.00 | 100 | 1006.6 |
| 20260505175403 | 25 | 209 | 4.8 | 14.5 | 0.00 | 0.00 | 0.00 | 100 | 1006.6 |
| 20260505175305 | 25 | 243 | 6.4 | 14.5 | 0.00 | 0.00 | 0.00 | 100 | 1006.6 |
| 20260505175203 | 25 | 213 | 4.8 | 14.5 | 0.00 | 0.00 | 0.00 | 100 | 1006.6 |
| 20260505175104 | 25 | 199 | 4.8 | 14.5 | 0.00 | 0.00 | 0.00 | 100 | 1006.6 |
| 20260505175003 | 25 | 245 | 4.8 | 14.5 | 0.00 | 0.00 | 0.00 | 100 | 1006.6 |
| 20260505174902 | 25 | 220 | 3.2 | 11.3 | 0.00 | 0.00 | 0.00 | 100 | 1006.6 |
| 20260505174804 | 25 | 162 | 3.2 | 11.3 | 0.00 | 0.00 | 0.00 | 100 | 1006.6 |
| 20260505174702 | 25 | 161 | 4.8 | 19.3 | 0.00 | 0.00 | 0.00 | 100 | 1006.7 |
| 20260505174602 | 25 | 209 | 9.7 | 19.3 | 0.00 | 0.00 | 0.00 | 100 | 1006.7 |
| 20260505174505 | 25 | 183 | 6.4 | 19.3 | 0.00 | 0.00 | 0.00 | 100 | 1006.8 |
| 20260505174404 | 25 | 182 | 6.4 | 19.3 | 0.00 | 0.00 | 0.00 | 100 | 1006.8 |
| 20260505174304 | 25 | 180 | 6.4 | 19.3 | 0.00 | 0.00 | 0.00 | 100 | 1006.8 |
| 20260505174203 | 25 | 231 | 6.4 | 19.3 | 0.00 | 0.00 | 0.00 | 100 | 1006.9 |
| 20260505174102 | 25 | 207 | 6.4 | 19.3 | 0.00 | 0.00 | 0.00 | 100 | 1006.9 |
| 20260505174003 | 25 | 235 | 8.0 | 19.3 | 0.00 | 0.00 | 0.00 | 100 | 1006.9 |
| 20260505173902 | 25 | 228 | 8.0 | 19.3 | 0.00 | 0.00 | 0.00 | 100 | 1007.0 |
| 20260505173802 | 25 | 210 | 6.4 | 17.7 | 0.00 | 0.00 | 0.00 | 100 | 1007.0 |
| 20260505173702 | 25 | 258 | 6.4 | 17.7 | 0.00 | 0.00 | 0.00 | 100 | 1007.0 |
| 20260505173604 | 25 | 237 | 8.0 | 17.7 | 0.00 | 0.00 | 0.00 | 100 | 1007.0 |
| 20260505173503 | 25 | 182 | 4.8 | 17.7 | 0.00 | 0.00 | 0.00 | 100 | 1007.1 |
| 20260505173403 | 25 | 221 | 3.2 | 17.7 | 0.00 | 0.00 | 0.00 | 100 | 1007.0 |
| 20260505173302 | 25 | 237 | 6.4 | 17.7 | 0.00 | 0.00 | 0.00 | 100 | 1007.0 |
| 20260505173203 | 25 | 196 | 8.0 | 17.7 | 0.00 | 0.00 | 0.00 | 100 | 1007.0 |
| 20260505173101 | 25 | 220 | 9.7 | 17.7 | 0.00 | 0.00 | 0.00 | 100 | 1007.0 |
| 20260505173003 | 25 | 189 | 11.3 | 17.7 | 0.00 | 0.00 | 0.00 | 100 | 1007.0 |
| 20260505172902 | 25 | 227 | 9.7 | 16.1 | 0.00 | 0.00 | 0.00 | 100 | 1007.0 |
| 20260505172804 | 25 | 227 | 8.0 | 16.1 | 0.00 | 0.00 | 0.00 | 100 | 1007.0 |
| 20260505172703 | 25 | 203 | 6.4 | 16.1 | 0.00 | 0.00 | 0.00 | 100 | 1007.0 |
| 20260505172603 | 25 | 231 | 4.8 | 16.1 | 0.00 | 0.00 | 0.00 | 100 | 1007.0 |
| 20260505172504 | 25 | 162 | 4.8 | 17.7 | 0.00 | 0.00 | 0.00 | 100 | 1007.0 |
| 20260505172404 | 25 | 196 | 4.8 | 17.7 | 0.00 | 0.00 | 0.00 | 100 | 1006.9 |
| 20260505172306 | 25 | 196 | 6.4 | 17.7 | 0.00 | 0.00 | 0.00 | 100 | 1007.0 |
| 20260505172204 | 25 | 185 | 4.8 | 17.7 | 0.00 | 0.00 | 0.00 | 100 | 1007.1 |
| 20260505172102 | 25 | 199 | 4.8 | 17.7 | 0.00 | 0.00 | 0.00 | 100 | 1007.0 |
| 20260505172004 | 25 | 228 | 6.4 | 17.7 | 0.00 | 0.00 | 0.00 | 100 | 1007.0 |
| 20260505171903 | 25 | 169 | 8.0 | 17.7 | 0.00 | 0.00 | 0.00 | 100 | 1007.0 |
| 20260505171803 | 25 | 207 | 8.0 | 17.7 | 0.00 | 0.00 | 0.00 | 100 | 1007.0 |
| 20260505171703 | 25 | 214 | 9.7 | 17.7 | 0.00 | 0.00 | 0.00 | 100 | 1007.0 |
| 20260505171602 | 25 | 219 | 9.7 | 17.7 | 0.00 | 0.00 | 0.00 | 100 | 1007.0 |
| 20260505171502 | 25 | 207 | 9.7 | 16.1 | 0.00 | 0.00 | 0.00 | 100 | 1007.1 |
| 20260505171403 | 25 | 147 | 9.7 | 16.1 | 0.00 | 0.00 | 0.00 | 100 | 1007.0 |
| 20260505171304 | 25 | 199 | 9.7 | 19.3 | 0.00 | 0.00 | 0.00 | 100 | 1007.0 |
| 20260505171203 | 25 | 233 | 6.4 | 19.3 | 0.00 | 0.00 | 0.00 | 100 | 1007.0 |
| 20260505171103 | 25 | 210 | 4.8 | 19.3 | 0.00 | 0.00 | 0.00 | 100 | 1006.9 |
| 20260505171002 | 25 | 180 | 4.8 | 19.3 | 0.00 | 0.00 | 0.00 | 100 | 1006.9 |
| 20260505170903 | 25 | 200 | 4.8 | 19.3 | 0.00 | 0.00 | 0.00 | 100 | 1006.9 |
| 20260505170803 | 25 | 169 | 4.8 | 19.3 | 0.00 | 0.00 | 0.00 | 100 | 1006.9 |
| 20260505170704 | 25 | 158 | 3.2 | 19.3 | 0.00 | 0.00 | 0.00 | 100 | 1007.0 |
| 20260505170603 | 25 | 192 | 3.2 | 19.3 | 0.00 | 0.00 | 0.00 | 100 | 1006.9 |
| 20260505170503 | 25 | 141 | 4.8 | 19.3 | 0.00 | 0.00 | 0.00 | 100 | 1006.9 |
| 20260505170403 | 25 | 161 | 4.8 | 19.3 | 0.00 | 0.00 | 0.00 | 100 | 1006.9 |
| 20260505170303 | 25 | 168 | 4.8 | 9.7 | 0.00 | 0.00 | 0.00 | 100 | 1006.9 |
| 20260505170202 | 25 | 219 | 6.4 | 9.7 | 0.00 | 0.00 | 0.00 | 100 | 1006.9 |
| 20260505170103 | 25 | 220 | 6.4 | 9.7 | 0.00 | 0.00 | 0.00 | 100 | 1006.9 |
| 20260505170004 | 25 | 172 | 3.2 | 8.0 | 0.00 | 0.00 | 0.00 | 100 | 1007.0 |
| 20260505165903 | 25 | 212 | 4.8 | 11.3 | 0.00 | 0.00 | 0.00 | 100 | 1006.9 |
| 20260505165803 | 25 | 213 | 4.8 | 11.3 | 0.00 | 0.00 | 0.00 | 100 | 1007.0 |
| 20260505165703 | 25 | 228 | 3.2 | 11.3 | 0.00 | 0.00 | 0.00 | 100 | 1006.9 |
| 20260505165602 | 25 | 186 | 4.8 | 11.3 | 0.00 | 0.00 | 0.00 | 100 | 1007.0 |
| 20260505165502 | 25 | 265 | 4.8 | 11.3 | 0.00 | 0.00 | 0.00 | 100 | 1007.0 |
| 20260505165403 | 25 | 197 | 3.2 | 11.3 | 0.00 | 0.00 | 0.00 | 100 | 1007.0 |
| 20260505165306 | 25 | 169 | 4.8 | 11.3 | 0.00 | 0.00 | 0.00 | 100 | 1007.1 |
| 20260505165202 | 25 | 176 | 4.8 | 14.5 | 0.00 | 0.00 | 0.00 | 100 | 1007.1 |
| 20260505165102 | 25 | 165 | 4.8 | 14.5 | 0.00 | 0.00 | 0.00 | 100 | 1007.0 |
| 20260505165004 | 25 | 188 | 3.2 | 14.5 | 0.00 | 0.00 | 0.00 | 100 | 1007.1 |
| 20260505164902 | 25 | 214 | 0.0 | 14.5 | 0.00 | 0.00 | 0.00 | 100 | 1007.1 |
| 20260505164803 | 25 | 227 | 1.6 | 14.5 | 0.00 | 0.00 | 0.00 | 100 | 1007.0 |
| 20260505164702 | 25 | 227 | 6.4 | 14.5 | 0.00 | 0.00 | 0.00 | 100 | 1007.1 |
| 20260505164603 | 25 | 195 | 6.4 | 14.5 | 0.00 | 0.00 | 0.00 | 100 | 1007.1 |
| 20260505164503 | 25 | 223 | 6.4 | 14.5 | 0.00 | 0.00 | 0.00 | 100 | 1007.1 |
| 20260505164403 | 25 | 169 | 8.0 | 14.5 | 0.00 | 0.00 | 0.00 | 100 | 1007.1 |
| 20260505164304 | 25 | 197 | 6.4 | 14.5 | 0.00 | 0.00 | 0.00 | 100 | 1007.1 |
| 20260505164202 | 25 | 148 | 1.6 | 11.3 | 0.00 | 0.00 | 0.00 | 100 | 1007.0 |
| 20260505164104 | 25 | 190 | 1.6 | 11.3 | 0.00 | 0.00 | 0.00 | 100 | 1007.1 |
| 20260505163955 | 25 | 185 | 3.2 | 11.3 | 0.00 | 0.00 | 0.00 | 100 | 1007.0 |
| 20260505163850 | 25 | 204 | 4.8 | 11.3 | 0.00 | 0.00 | 0.00 | 100 | 1007.0 |
| 20260505163748 | 25 | 161 | 3.2 | 8.0 | 0.00 | 0.00 | 0.00 | 100 | 1007.0 |
| 20260505163649 | 25 | 188 | 1.6 | 6.4 | 0.00 | 0.00 | 0.00 | 100 | 1007.0 |
| 20260505163550 | 25 | 165 | 0.0 | 4.8 | 0.00 | 0.00 | 0.00 | 100 | 1006.9 |
| 20260505163449 | 25 | 166 | 1.6 | 6.4 | 0.00 | 0.00 | 0.00 | 100 | 1006.9 |
| 20260505163349 | 25 | 166 | 1.6 | 6.4 | 0.00 | 0.00 | 0.00 | 100 | 1007.0 |
| 20260505163248 | 25 | 168 | 0.0 | 6.4 | 0.00 | 0.00 | 0.00 | 100 | 1007.0 |
| 20260505163148 | 25 | 168 | 0.0 | 6.4 | 0.00 | 0.00 | 0.00 | 100 | 1007.0 |
| 20260505163050 | 25 | 168 | 3.2 | 6.4 | 0.00 | 0.00 | 0.00 | 100 | 1007.0 |
| 20260505162950 | 25 | 179 | 3.2 | 6.4 | 0.00 | 0.00 | 0.00 | 100 | 1007.0 |
| 20260505162848 | 25 | 195 | 3.2 | 6.4 | 0.00 | 0.00 | 0.00 | 100 | 1007.0 |
| 20260505162748 | 25 | 162 | 1.6 | 6.4 | 0.00 | 0.00 | 0.00 | 100 | 1007.0 |
| 20260505162650 | 25 | 161 | 3.2 | 6.4 | 0.00 | 0.00 | 0.00 | 100 | 1007.0 |
| 20260505162549 | 25 | 162 | 3.2 | 6.4 | 0.00 | 0.00 | 0.00 | 100 | 1006.9 |
| 20260505162449 | 25 | 185 | 0.0 | 6.4 | 0.00 | 0.00 | 0.00 | 100 | 1007.0 |
| 20260505162350 | 25 | 158 | 0.0 | 6.4 | 0.00 | 0.00 | 0.00 | 100 | 1007.1 |
| 20260505162248 | 25 | 158 | 0.0 | 6.4 | 0.00 | 0.00 | 0.00 | 100 | 1007.0 |
| 20260505162149 | 25 | 158 | 0.0 | 6.4 | 0.00 | 0.00 | 0.00 | 100 | 1007.0 |
| 20260505162050 | 25 | 158 | 0.0 | 8.0 | 0.00 | 0.00 | 0.00 | 100 | 1007.0 |
| 20260505161949 | 25 | 158 | 1.6 | 8.0 | 0.00 | 0.00 | 0.00 | 100 | 1006.9 |
| 20260505161849 | 25 | 161 | 3.2 | 8.0 | 0.00 | 0.00 | 0.00 | 100 | 1007.0 |
| 20260505161750 | 25 | 159 | 1.6 | 9.7 | 0.00 | 0.00 | 0.00 | 100 | 1007.0 |
| 20260505161649 | 25 | 188 | 1.6 | 9.7 | 0.00 | 0.00 | 0.00 | 100 | 1007.0 |
| 20260505161549 | 25 | 188 | 3.2 | 9.7 | 0.00 | 0.00 | 0.00 | 100 | 1007.1 |
| 20260505161449 | 25 | 202 | 3.2 | 9.7 | 0.00 | 0.00 | 0.00 | 100 | 1007.0 |
| 20260505161349 | 25 | 200 | 3.2 | 9.7 | 0.00 | 0.00 | 0.00 | 100 | 1007.0 |
| 20260505161249 | 25 | 220 | 3.2 | 11.3 | 0.00 | 0.00 | 0.00 | 100 | 1006.9 |
| 20260505161149 | 25 | 223 | 3.2 | 11.3 | 0.00 | 0.00 | 0.00 | 100 | 1007.0 |
| 20260505161048 | 25 | 210 | 3.2 | 11.3 | 0.00 | 0.00 | 0.00 | 100 | 1007.1 |
| 20260505160948 | 25 | 228 | 3.2 | 16.1 | 0.00 | 0.00 | 0.00 | 100 | 1007.0 |
| 20260505160849 | 25 | 178 | 3.2 | 16.1 | 0.00 | 0.00 | 0.00 | 100 | 1007.0 |
| 20260505160749 | 25 | 220 | 3.2 | 16.1 | 0.00 | 0.00 | 0.00 | 100 | 1007.0 |
| 20260505160649 | 24 | 158 | 3.2 | 16.1 | 0.00 | 0.00 | 0.00 | 100 | 1007.0 |
| 20260505160548 | 24 | 204 | 3.2 | 16.1 | 0.00 | 0.00 | 0.00 | 100 | 1007.0 |
| 20260505160448 | 24 | 212 | 4.8 | 16.1 | 0.00 | 0.00 | 0.00 | 100 | 1007.1 |
| 20260505160348 | 24 | 202 | 4.8 | 16.1 | 0.00 | 0.00 | 0.00 | 100 | 1007.1 |
| 20260505160248 | 24 | 140 | 4.8 | 16.1 | 0.00 | 0.00 | 0.00 | 100 | 1007.0 |
| 20260505160147 | 24 | 159 | 4.8 | 16.1 | 0.00 | 0.00 | 0.00 | 100 | 1007.1 |
| 20260505153348 | 25 | 169 | 6.4 | 11.3 | 0.00 | 0.00 | 0.00 | 100 | 1007.1 |
| 20260505153247 | 25 | 193 | 6.4 | 11.3 | 0.00 | 0.00 | 0.00 | 100 | 1007.1 |
| 20260505153147 | 25 | 179 | 6.4 | 11.3 | 0.00 | 0.00 | 0.00 | 100 | 1007.1 |
| 20260505153047 | 25 | 209 | 6.4 | 11.3 | 0.00 | 0.00 | 0.00 | 100 | 1007.0 |
| 20260505152947 | 25 | 202 | 6.4 | 11.3 | 0.00 | 0.00 | 0.00 | 100 | 1007.0 |
| 20260505152849 | 25 | 227 | 6.4 | 11.3 | 0.00 | 0.00 | 0.00 | 100 | 1006.9 |
| 20260505152748 | 25 | 217 | 6.4 | 11.3 | 0.00 | 0.00 | 0.00 | 100 | 1006.9 |
| 20260505152649 | 25 | 193 | 6.4 | 11.3 | 0.00 | 0.00 | 0.00 | 100 | 1006.9 |
| 20260505152549 | 25 | 204 | 6.4 | 11.3 | 0.00 | 0.00 | 0.00 | 100 | 1007.0 |
| 20260505152448 | 25 | 202 | 6.4 | 11.3 | 0.00 | 0.00 | 0.00 | 100 | 1006.9 |
| 20260505152348 | 25 | 261 | 6.4 | 14.5 | 0.00 | 0.00 | 0.00 | 100 | 1006.9 |
| 20260505152249 | 25 | 179 | 6.4 | 14.5 | 0.00 | 0.00 | 0.00 | 100 | 1006.8 |
| 20260505152148 | 25 | 159 | 6.4 | 14.5 | 0.00 | 0.00 | 0.00 | 100 | 1006.9 |
| 20260505152047 | 25 | 221 | 4.8 | 14.5 | 0.00 | 0.00 | 0.00 | 100 | 1006.8 |
| 20260505151949 | 25 | 107 | 4.8 | 14.5 | 0.00 | 0.00 | 0.00 | 100 | 1006.8 |
| 20260505151848 | 25 | 216 | 4.8 | 14.5 | 0.00 | 0.00 | 0.00 | 100 | 1006.8 |
| 20260505151748 | 25 | 188 | 3.2 | 14.5 | 0.00 | 0.00 | 0.00 | 100 | 1006.8 |
| 20260505151647 | 25 | 178 | 4.8 | 14.5 | 0.00 | 0.00 | 0.00 | 100 | 1006.9 |
| 20260505151548 | 25 | 164 | 6.4 | 14.5 | 0.00 | 0.00 | 0.00 | 100 | 1006.9 |
| 20260505151447 | 25 | 192 | 4.8 | 14.5 | 0.00 | 0.00 | 0.00 | 100 | 1006.9 |
| 20260505151348 | 25 | 173 | 6.4 | 14.5 | 0.00 | 0.00 | 0.00 | 100 | 1006.8 |
| 20260505151247 | 25 | 148 | 6.4 | 14.5 | 0.00 | 0.00 | 0.00 | 100 | 1006.9 |
| 20260505151146 | 25 | 257 | 6.4 | 14.5 | 0.00 | 0.00 | 0.00 | 100 | 1006.8 |
| 20260505151047 | 25 | 202 | 6.4 | 14.5 | 0.00 | 0.00 | 0.00 | 100 | 1006.9 |
| 20260505150947 | 25 | 202 | 6.4 | 14.5 | 0.00 | 0.00 | 0.00 | 100 | 1006.9 |
| 20260505150848 | 25 | 202 | 6.4 | 14.5 | 0.00 | 0.00 | 0.00 | 100 | 1006.9 |
| 20260505150748 | 25 | 202 | 6.4 | 14.5 | 0.00 | 0.00 | 0.00 | 100 | 1006.9 |
| 20260505150648 | 25 | 195 | 6.4 | 14.5 | 0.00 | 0.00 | 0.00 | 100 | 1006.9 |
| 20260505150548 | 25 | 199 | 6.4 | 14.5 | 0.00 | 0.00 | 0.00 | 100 | 1006.9 |
| 20260505150446 | 25 | 186 | 6.4 | 8.0 | 0.00 | 0.00 | 0.00 | 100 | 1006.9 |
| 20260505150346 | 25 | 186 | 6.4 | 8.0 | 0.00 | 0.00 | 0.00 | 100 | 1006.9 |
| 20260505150247 | 25 | 220 | 4.8 | 8.0 | 0.00 | 0.00 | 0.00 | 100 | 1006.8 |
| 20260505150147 | 25 | 193 | 3.2 | 8.0 | 0.00 | 0.00 | 0.00 | 100 | 1006.8 |
| 20260505140630 | 25 | 197 | 4.8 | 16.1 | 0.00 | 0.00 | 0.00 | 100 | 1006.6 |
| 20260505140531 | 25 | 195 | 3.2 | 16.1 | 0.00 | 0.00 | 0.00 | 100 | 1006.6 |
| 20260505140431 | 25 | 224 | 3.2 | 16.1 | 0.00 | 0.00 | 0.00 | 100 | 1006.5 |
| 20260505140332 | 25 | 202 | 4.8 | 16.1 | 0.00 | 0.00 | 0.00 | 100 | 1006.5 |
| 20260505140220 | 25 | 137 | 4.8 | 16.1 | 0.00 | 0.00 | 0.00 | 100 | 1006.6 |
| 20260505140115 | 24 | 164 | 6.4 | 16.1 | 0.00 | 0.00 | 0.00 | 100 | 1006.5 |
| 20260505130303 | 23 | 197 | 6.4 | 11.3 | 0.00 | 0.00 | 0.00 | 100 | 1006.2 |
| 20260505130202 | 23 | 166 | 3.2 | 11.3 | 0.00 | 0.00 | 0.00 | 100 | 1006.2 |
| 20260505130104 | 23 | 166 | 3.2 | 9.7 | 0.00 | 0.00 | 0.00 | 100 | 1006.1 |
| 20260505125004 | 23 | 199 | 0.0 | 8.0 | 0.00 | 0.00 | 0.00 | 100 | 1006.3 |
| 20260505124902 | 23 | 140 | 0.0 | 8.0 | 0.00 | 0.00 | 0.00 | 100 | 1006.3 |
| 20260505124804 | 23 | 140 | 0.0 | 8.0 | 0.00 | 0.00 | 0.00 | 100 | 1006.4 |
| 20260505124702 | 23 | 171 | 3.2 | 8.0 | 0.00 | 0.00 | 0.00 | 100 | 1006.4 |
| 20260505124604 | 23 | 171 | 4.8 | 8.0 | 0.00 | 0.00 | 0.00 | 100 | 1006.4 |
| 20260505124504 | 23 | 130 | 1.6 | 8.0 | 0.00 | 0.00 | 0.00 | 100 | 1006.4 |
| 20260505124403 | 23 | 173 | 1.6 | 8.0 | 0.00 | 0.00 | 0.00 | 100 | 1006.3 |
| 20260505124303 | 23 | 178 | 1.6 | 8.0 | 0.00 | 0.00 | 0.00 | 100 | 1006.3 |
| 20260505124204 | 23 | 164 | 1.6 | 8.0 | 0.00 | 0.00 | 0.00 | 100 | 1006.4 |
| 20260505124102 | 23 | 203 | 1.6 | 8.0 | 0.00 | 0.00 | 0.00 | 100 | 1006.2 |
| 20260505124004 | 23 | 159 | 0.0 | 8.0 | 0.00 | 0.00 | 0.00 | 100 | 1006.3 |
| 20260505123903 | 23 | 141 | 1.6 | 8.0 | 0.00 | 0.00 | 0.00 | 100 | 1006.3 |
| 20260505123804 | 23 | 140 | 1.6 | 8.0 | 0.00 | 0.00 | 0.00 | 100 | 1006.3 |
| 20260505123703 | 23 | 154 | 1.6 | 4.8 | 0.00 | 0.00 | 0.00 | 100 | 1006.4 |
| 20260505123603 | 23 | 171 | 1.6 | 4.8 | 0.00 | 0.00 | 0.00 | 100 | 1006.4 |
| 20260505123503 | 23 | 149 | 1.6 | 4.8 | 0.00 | 0.00 | 0.00 | 100 | 1006.5 |
| 20260505123404 | 23 | 162 | 0.0 | 4.8 | 0.00 | 0.00 | 0.00 | 100 | 1006.5 |
| 20260505123301 | 23 | 162 | 0.0 | 4.8 | 0.00 | 0.00 | 0.00 | 100 | 1006.5 |
| 20260505123203 | 23 | 162 | 0.0 | 4.8 | 0.00 | 0.00 | 0.00 | 100 | 1006.6 |
| 20260505123103 | 23 | 162 | 1.6 | 6.4 | 0.00 | 0.00 | 0.00 | 100 | 1006.4 |
| 20260505123003 | 23 | 162 | 1.6 | 6.4 | 0.00 | 0.00 | 0.00 | 100 | 1006.5 |
| 20260505122902 | 23 | 203 | 1.6 | 8.0 | 0.00 | 0.00 | 0.00 | 100 | 1006.4 |
| 20260505122803 | 23 | 162 | 0.0 | 9.7 | 0.00 | 0.00 | 0.00 | 100 | 1006.4 |
| 20260505122703 | 23 | 155 | 0.0 | 9.7 | 0.00 | 0.00 | 0.00 | 100 | 1006.2 |
| 20260505122603 | 23 | 155 | 1.6 | 9.7 | 0.00 | 0.00 | 0.00 | 100 | 1006.2 |
| 20260505122503 | 23 | 154 | 1.6 | 11.3 | 0.00 | 0.00 | 0.00 | 100 | 1006.2 |
| 20260505122402 | 23 | 206 | 1.6 | 11.3 | 0.00 | 0.00 | 0.00 | 100 | 1006.2 |
| 20260505122305 | 23 | 159 | 3.2 | 11.3 | 0.00 | 0.00 | 0.00 | 100 | 1006.2 |
| 20260505122203 | 23 | 158 | 3.2 | 11.3 | 0.00 | 0.00 | 0.00 | 100 | 1006.2 |
| 20260505122102 | 23 | 152 | 3.2 | 11.3 | 0.00 | 0.00 | 0.00 | 100 | 1006.1 |
| 20260505122003 | 23 | 149 | 4.8 | 11.3 | 0.00 | 0.00 | 0.00 | 100 | 1006.1 |
| 20260505121902 | 23 | 212 | 4.8 | 11.3 | 0.00 | 0.00 | 0.00 | 100 | 1006.0 |
| 20260505121803 | 23 | 159 | 3.2 | 11.3 | 0.00 | 0.00 | 0.00 | 100 | 1006.1 |
| 20260505121701 | 23 | 176 | 4.8 | 11.3 | 0.00 | 0.00 | 0.00 | 100 | 1006.1 |
| 20260505121604 | 23 | 200 | 4.8 | 11.3 | 0.00 | 0.00 | 0.00 | 100 | 1006.1 |
| 20260505121503 | 23 | 200 | 3.2 | 4.8 | 0.00 | 0.00 | 0.00 | 100 | 1006.1 |
| 20260505121402 | 23 | 207 | 1.6 | 6.4 | 0.00 | 0.00 | 0.00 | 100 | 1006.0 |
| 20260505121303 | 23 | 200 | 3.2 | 6.4 | 0.00 | 0.00 | 0.00 | 100 | 1006.1 |
| 20260505121203 | 23 | 130 | 3.2 | 6.4 | 0.00 | 0.00 | 0.00 | 100 | 1006.0 |
| 20260505121102 | 23 | 173 | 1.6 | 6.4 | 0.00 | 0.00 | 0.00 | 100 | 1006.0 |
| 20260505121003 | 23 | 155 | 1.6 | 6.4 | 0.00 | 0.00 | 0.00 | 100 | 1006.0 |
| 20260505120902 | 23 | 172 | 1.6 | 6.4 | 0.00 | 0.00 | 0.00 | 100 | 1006.0 |
| 20260505120802 | 23 | 168 | 1.6 | 6.4 | 0.00 | 0.00 | 0.00 | 100 | 1006.0 |
| 20260505120703 | 23 | 164 | 1.6 | 6.4 | 0.00 | 0.00 | 0.00 | 100 | 1006.0 |
| 20260505120603 | 23 | 176 | 3.2 | 6.4 | 0.00 | 0.00 | 0.00 | 100 | 1006.0 |
| 20260505120503 | 23 | 173 | 4.8 | 6.4 | 0.00 | 0.00 | 0.00 | 100 | 1006.0 |
| 20260505120403 | 23 | 175 | 1.6 | 6.4 | 0.00 | 0.00 | 0.00 | 100 | 1006.0 |
| 20260505120302 | 23 | 209 | 3.2 | 6.4 | 0.00 | 0.00 | 0.00 | 100 | 1006.0 |
| 20260505120203 | 23 | 209 | 3.2 | 6.4 | 0.00 | 0.00 | 0.00 | 100 | 1005.9 |
| 20260505120103 | 23 | 209 | 3.2 | 6.4 | 0.00 | 0.00 | 0.00 | 100 | 1005.8 |
| 20260505120004 | 23 | 209 | 3.2 | 6.4 | 0.00 | 0.00 | 0.00 | 100 | 1005.9 |
| 20260505115903 | 23 | 209 | 3.2 | 6.4 | 0.00 | 0.00 | 0.00 | 100 | 1005.8 |
| 20260505115803 | 23 | 209 | 3.2 | 6.4 | 0.00 | 0.00 | 0.00 | 100 | 1006.0 |
| 20260505115703 | 23 | 209 | 3.2 | 6.4 | 0.00 | 0.00 | 0.00 | 100 | 1006.0 |
| 20260505115603 | 23 | 209 | 3.2 | 6.4 | 0.00 | 0.00 | 0.00 | 100 | 1006.1 |
| 20260505115504 | 23 | 228 | 3.2 | 4.8 | 0.00 | 0.00 | 0.00 | 100 | 1006.2 |
| 20260505115403 | 23 | 183 | 1.6 | 4.8 | 0.00 | 0.00 | 0.00 | 100 | 1006.2 |
| 20260505115305 | 23 | 165 | 0.0 | 4.8 | 0.00 | 0.00 | 0.00 | 100 | 1006.1 |
| 20260505115202 | 23 | 166 | 0.0 | 4.8 | 0.00 | 0.00 | 0.00 | 100 | 1006.2 |
| 20260505115104 | 23 | 203 | 0.0 | 6.4 | 0.00 | 0.00 | 0.00 | 100 | 1006.2 |
| 20260505115004 | 23 | 203 | 0.0 | 6.4 | 0.00 | 0.00 | 0.00 | 100 | 1006.2 |
| 20260505114903 | 23 | 152 | 1.6 | 6.4 | 0.00 | 0.00 | 0.00 | 100 | 1006.1 |
| 20260505114803 | 23 | 158 | 3.2 | 6.4 | 0.00 | 0.00 | 0.00 | 100 | 1006.1 |
| 20260505114702 | 23 | 157 | 3.2 | 6.4 | 0.00 | 0.00 | 0.00 | 100 | 1006.1 |
| 20260505114603 | 23 | 216 | 1.6 | 11.3 | 0.00 | 0.00 | 0.00 | 100 | 1006.1 |
| 20260505114502 | 23 | 176 | 1.6 | 11.3 | 0.00 | 0.00 | 0.00 | 100 | 1006.2 |
| 20260505114403 | 23 | 168 | 3.2 | 11.3 | 0.00 | 0.00 | 0.00 | 100 | 1006.2 |
| 20260505114302 | 23 | 213 | 1.6 | 11.3 | 0.00 | 0.00 | 0.00 | 100 | 1006.2 |
| 20260505114202 | 23 | 183 | 1.6 | 11.3 | 0.00 | 0.00 | 0.00 | 100 | 1006.2 |
| 20260505114102 | 23 | 176 | 0.0 | 11.3 | 0.00 | 0.00 | 0.00 | 100 | 1006.2 |
| 20260505114003 | 23 | 179 | 1.6 | 11.3 | 0.00 | 0.00 | 0.00 | 100 | 1006.2 |
| 20260505113904 | 23 | 180 | 0.0 | 11.3 | 0.00 | 0.00 | 0.00 | 100 | 1006.2 |
| 20260505113804 | 23 | 202 | 3.2 | 11.3 | 0.00 | 0.00 | 0.00 | 100 | 1006.1 |
| 20260505113703 | 23 | 193 | 3.2 | 11.3 | 0.00 | 0.00 | 0.00 | 100 | 1006.2 |
| 20260505113602 | 23 | 173 | 0.0 | 6.4 | 0.00 | 0.00 | 0.00 | 100 | 1006.0 |
| 20260505113502 | 23 | 157 | 1.6 | 6.4 | 0.00 | 0.00 | 0.00 | 100 | 1006.0 |
| 20260505113403 | 23 | 152 | 1.6 | 6.4 | 0.00 | 0.00 | 0.00 | 100 | 1006.0 |
| 20260505113303 | 23 | 162 | 1.6 | 6.4 | 0.00 | 0.00 | 0.00 | 100 | 1006.0 |
| 20260505113203 | 23 | 155 | 1.6 | 11.3 | 0.00 | 0.00 | 0.00 | 100 | 1005.9 |
| 20260505113103 | 23 | 173 | 3.2 | 11.3 | 0.00 | 0.00 | 0.00 | 100 | 1005.9 |
| 20260505113002 | 23 | 171 | 1.6 | 11.3 | 0.00 | 0.00 | 0.00 | 100 | 1006.0 |
| 20260505112903 | 23 | 152 | 1.6 | 11.3 | 0.00 | 0.00 | 0.00 | 100 | 1005.8 |
| 20260505112802 | 23 | 195 | 3.2 | 11.3 | 0.00 | 0.00 | 0.00 | 100 | 1005.8 |
| 20260505112703 | 23 | 159 | 3.2 | 11.3 | 0.00 | 0.00 | 0.00 | 100 | 1005.8 |
| 20260505112603 | 23 | 169 | 3.2 | 11.3 | 0.00 | 0.00 | 0.00 | 100 | 1005.7 |
| 20260505112504 | 23 | 168 | 3.2 | 11.3 | 0.00 | 0.00 | 0.00 | 100 | 1005.8 |
| 20260505112402 | 23 | 158 | 3.2 | 11.3 | 0.00 | 0.00 | 0.00 | 100 | 1005.9 |
| 20260505112305 | 23 | 157 | 3.2 | 11.3 | 0.00 | 0.00 | 0.00 | 100 | 1005.9 |
| 20260505112203 | 23 | 159 | 1.6 | 11.3 | 0.00 | 0.00 | 0.00 | 100 | 1005.9 |
| 20260505112104 | 23 | 155 | 3.2 | 11.3 | 0.00 | 0.00 | 0.00 | 100 | 1005.9 |
| 20260505112004 | 23 | 166 | 3.2 | 11.3 | 0.00 | 0.00 | 0.00 | 100 | 1005.8 |
| 20260505111903 | 23 | 175 | 1.6 | 11.3 | 0.00 | 0.00 | 0.00 | 100 | 1005.9 |
| 20260505111801 | 23 | 183 | 3.2 | 11.3 | 0.00 | 0.00 | 0.00 | 100 | 1005.9 |
| 20260505111703 | 23 | 216 | 1.6 | 11.3 | 0.00 | 0.00 | 0.00 | 100 | 1005.9 |
| 20260505111602 | 23 | 227 | 1.6 | 11.3 | 0.00 | 0.00 | 0.00 | 100 | 1006.0 |
| 20260505111503 | 23 | 164 | 1.6 | 11.3 | 0.00 | 0.00 | 0.00 | 100 | 1005.9 |
| 20260505111403 | 23 | 182 | 3.2 | 11.3 | 0.00 | 0.00 | 0.00 | 100 | 1005.9 |
| 20260505111302 | 23 | 204 | 3.2 | 11.3 | 0.00 | 0.00 | 0.00 | 100 | 1005.9 |
| 20260505111203 | 23 | 147 | 1.6 | 8.0 | 0.00 | 0.00 | 0.00 | 100 | 1005.9 |
| 20260505111103 | 23 | 220 | 3.2 | 8.0 | 0.00 | 0.00 | 0.00 | 100 | 1005.9 |
| 20260505111005 | 23 | 162 | 3.2 | 8.0 | 0.00 | 0.00 | 0.00 | 100 | 1005.8 |
| 20260505110903 | 23 | 206 | 3.2 | 6.4 | 0.00 | 0.00 | 0.00 | 100 | 1005.8 |
| 20260505110802 | 23 | 202 | 3.2 | 3.2 | 0.00 | 0.00 | 0.00 | 100 | 1005.8 |
| 20260505110704 | -17 | 0.0 | 0.0 | 0.00 | 0.00 | 0.00 | 1005.8 | ||
| 20260505110604 | -17 | 0.0 | 0.0 | 0.00 | 0.00 | 0.00 | 1005.8 | ||
| 20260505110503 | 22 | 149 | 0.0 | 1.6 | 0.00 | 0.00 | 0.00 | 100 | 1005.9 |
| 20260505110403 | 22 | 149 | 0.0 | 1.6 | 0.00 | 0.00 | 0.00 | 100 | 1005.9 |
| 20260505110303 | 22 | 149 | 0.0 | 3.2 | 0.00 | 0.00 | 0.00 | 100 | 1005.9 |
| 20260505110203 | 22 | 149 | 0.0 | 3.2 | 0.00 | 0.00 | 0.00 | 100 | 1005.9 |
| 20260505102203 | 23 | 178 | 0.0 | 6.4 | 0.00 | 0.00 | 0.00 | 100 | 1005.9 |
| 20260505102104 | 23 | 178 | 1.6 | 6.4 | 0.00 | 0.00 | 0.00 | 100 | 1005.9 |
| 20260505102002 | 23 | 176 | 1.6 | 6.4 | 0.00 | 0.00 | 0.00 | 100 | 1005.9 |
| 20260505101904 | 23 | 162 | 1.6 | 6.4 | 0.00 | 0.00 | 0.00 | 100 | 1005.9 |
| 20260505101802 | 22 | 165 | 3.2 | 6.4 | 0.00 | 0.00 | 0.00 | 100 | 1005.9 |
| 20260505101704 | 22 | 162 | 3.2 | 6.4 | 0.00 | 0.00 | 0.00 | 100 | 1005.9 |
| 20260505101603 | 22 | 154 | 1.6 | 6.4 | 0.00 | 0.00 | 0.00 | 100 | 1005.9 |
| 20260505101503 | 22 | 154 | 1.6 | 6.4 | 0.00 | 0.00 | 0.00 | 100 | 1005.9 |
| 20260505101403 | 22 | 151 | 1.6 | 6.4 | 0.00 | 0.00 | 0.00 | 100 | 1006.0 |
| 20260505101303 | 22 | 221 | 3.2 | 6.4 | 0.00 | 0.00 | 0.00 | 100 | 1006.0 |
| 20260505101203 | 22 | 161 | 3.2 | 6.4 | 0.00 | 0.00 | 0.00 | 100 | 1006.0 |
| 20260505101103 | 22 | 157 | 3.2 | 6.4 | 0.00 | 0.00 | 0.00 | 100 | 1006.0 |
| 20260505101004 | 22 | 179 | 1.6 | 6.4 | 0.00 | 0.00 | 0.00 | 100 | 1006.0 |
| 20260505100902 | 22 | 189 | 0.0 | 6.4 | 0.00 | 0.00 | 0.00 | 100 | 1006.0 |
| 20260505100803 | 22 | 145 | 0.0 | 6.4 | 0.00 | 0.00 | 0.00 | 100 | 1006.1 |
| 20260505100704 | 22 | 173 | 0.0 | 6.4 | 0.00 | 0.00 | 0.00 | 100 | 1006.1 |
| 20260505100603 | 22 | 173 | 1.6 | 6.4 | 0.00 | 0.00 | 0.00 | 100 | 1006.1 |
| 20260505100504 | 22 | 173 | 3.2 | 6.4 | 0.00 | 0.00 | 0.00 | 100 | 1006.0 |
| 20260505100402 | 22 | 212 | 1.6 | 4.8 | 0.00 | 0.00 | 0.00 | 100 | 1006.0 |
| 20260505100303 | 22 | 159 | 1.6 | 4.8 | 0.00 | 0.00 | 0.00 | 100 | 1006.0 |
| 20260505100203 | 22 | 186 | 1.6 | 4.8 | 0.00 | 0.00 | 0.00 | 100 | 1005.9 |
| 20260505100004 | 22 | 189 | 1.6 | 4.8 | 0.00 | 0.00 | 0.00 | 100 | 1006.0 |
| 20260505095901 | 22 | 180 | 1.6 | 4.8 | 0.00 | 0.00 | 0.00 | 100 | 1005.9 |
| 20260505095802 | 22 | 210 | 1.6 | 4.8 | 0.00 | 0.00 | 0.00 | 100 | 1005.9 |
| 20260505095703 | 22 | 183 | 0.0 | 4.8 | 0.00 | 0.00 | 0.00 | 100 | 1005.9 |
| 20260505095604 | 22 | 219 | 1.6 | 4.8 | 0.00 | 0.00 | 0.00 | 100 | 1005.8 |
| 20260505095502 | 22 | 161 | 1.6 | 8.0 | 0.00 | 0.00 | 0.00 | 100 | 1005.9 |
| 20260505095403 | 22 | 158 | 1.6 | 8.0 | 0.00 | 0.00 | 0.00 | 100 | 1005.9 |
| 20260505095304 | 22 | 161 | 3.2 | 8.0 | 0.00 | 0.00 | 0.00 | 100 | 1005.9 |
| 20260505095202 | 22 | 171 | 1.6 | 8.0 | 0.00 | 0.00 | 0.00 | 100 | 1006.0 |
| 20260505095102 | 22 | 155 | 0.0 | 8.0 | 0.00 | 0.00 | 0.00 | 100 | 1006.0 |
| 20260505095003 | 22 | 164 | 0.0 | 8.0 | 0.00 | 0.00 | 0.00 | 100 | 1006.0 |
| 20260505094904 | 22 | 162 | 0.0 | 8.0 | 0.00 | 0.00 | 0.00 | 100 | 1006.1 |
| 20260505094804 | 22 | 162 | 3.2 | 8.0 | 0.00 | 0.00 | 0.00 | 100 | 1006.0 |
| 20260505094703 | 22 | 162 | 3.2 | 8.0 | 0.00 | 0.00 | 0.00 | 100 | 1006.1 |
| 20260505094603 | 22 | 133 | 3.2 | 8.0 | 0.00 | 0.00 | 0.00 | 100 | 1006.1 |
| 20260505094504 | 22 | 185 | 0.0 | 6.4 | 0.00 | 0.00 | 0.00 | 100 | 1006.1 |
| 20260505094404 | 22 | 192 | 0.0 | 6.4 | 0.00 | 0.00 | 0.00 | 100 | 1006.2 |
| 20260505094303 | 22 | 155 | 1.6 | 6.4 | 0.00 | 0.00 | 0.00 | 100 | 1006.2 |
| 20260505094203 | 22 | 154 | 1.6 | 6.4 | 0.00 | 0.00 | 0.00 | 100 | 1006.2 |
| 20260505094104 | 22 | 165 | 1.6 | 6.4 | 0.00 | 0.00 | 0.00 | 100 | 1006.2 |
| 20260505094002 | 22 | 164 | 3.2 | 6.4 | 0.00 | 0.00 | 0.00 | 100 | 1006.2 |
| 20260505093903 | 22 | 169 | 3.2 | 6.4 | 0.00 | 0.00 | 0.00 | 100 | 1006.2 |
| 20260505093802 | 22 | 164 | 1.6 | 4.8 | 0.00 | 0.00 | 0.00 | 100 | 1006.2 |
| 20260505093702 | 22 | 164 | 1.6 | 4.8 | 0.00 | 0.00 | 0.00 | 100 | 1006.1 |
| 20260505093603 | 22 | 166 | 1.6 | 4.8 | 0.00 | 0.00 | 0.00 | 100 | 1006.1 |
| 20260505093504 | 22 | 171 | 0.0 | 4.8 | 0.00 | 0.00 | 0.00 | 100 | 1006.1 |
| 20260505093402 | 22 | 171 | 0.0 | 4.8 | 0.00 | 0.00 | 0.00 | 100 | 1006.2 |
| 20260505093302 | 22 | 165 | 0.0 | 4.8 | 0.00 | 0.00 | 0.00 | 100 | 1006.2 |
| 20260505093203 | 22 | 157 | 0.0 | 4.8 | 0.00 | 0.00 | 0.00 | 100 | 1006.1 |
| 20260505093103 | 22 | 157 | 0.0 | 4.8 | 0.00 | 0.00 | 0.00 | 100 | 1006.1 |
| 20260505093004 | 22 | 157 | 0.0 | 4.8 | 0.00 | 0.00 | 0.00 | 100 | 1006.1 |
| 20260505092902 | 22 | 152 | 1.6 | 4.8 | 0.00 | 0.00 | 0.00 | 100 | 1006.1 |
| 20260505092805 | 22 | 152 | 1.6 | 4.8 | 0.00 | 0.00 | 0.00 | 100 | 1006.1 |
| 20260505092703 | 22 | 162 | 0.0 | 4.8 | 0.00 | 0.00 | 0.00 | 100 | 1006.1 |
| 20260505092603 | 22 | 157 | 0.0 | 4.8 | 0.00 | 0.00 | 0.00 | 100 | 1006.1 |
| 20260505092502 | 22 | 157 | 3.2 | 4.8 | 0.00 | 0.00 | 0.00 | 100 | 1006.0 |
| 20260505092403 | 22 | 157 | 1.6 | 4.8 | 0.00 | 0.00 | 0.00 | 100 | 1006.1 |
| 20260505092305 | 22 | 157 | 1.6 | 3.2 | 0.00 | 0.00 | 0.00 | 100 | 1006.2 |
| 20260505092204 | 22 | 162 | 0.0 | 3.2 | 0.00 | 0.00 | 0.00 | 100 | 1006.1 |
| 20260505092102 | 22 | 162 | 1.6 | 3.2 | 0.00 | 0.00 | 0.00 | 100 | 1006.1 |
| 20260505092003 | 22 | 165 | 1.6 | 3.2 | 0.00 | 0.00 | 0.00 | 100 | 1006.1 |
| 20260505091902 | 22 | 171 | 1.6 | 3.2 | 0.00 | 0.00 | 0.00 | 100 | 1006.2 |
| 20260505091802 | 22 | 176 | 0.0 | 1.6 | 0.00 | 0.00 | 0.00 | 100 | 1006.2 |
| 20260505091703 | 22 | 176 | 0.0 | 1.6 | 0.00 | 0.00 | 0.00 | 100 | 1006.2 |
| 20260505091602 | 22 | 180 | 0.0 | 1.6 | 0.00 | 0.00 | 0.00 | 100 | 1006.2 |
| 20260505091502 | 22 | 180 | 1.6 | 1.6 | 0.00 | 0.00 | 0.00 | 100 | 1006.2 |
| 20260505091403 | 22 | 182 | 0.0 | 1.6 | 0.00 | 0.00 | 0.00 | 100 | 1006.2 |
| 20260505091303 | 22 | 182 | 0.0 | 4.8 | 0.00 | 0.00 | 0.00 | 100 | 1006.2 |
| 20260505091202 | 22 | 182 | 0.0 | 6.4 | 0.00 | 0.00 | 0.00 | 100 | 1006.2 |
| 20260505091103 | 22 | 182 | 0.0 | 8.0 | 0.00 | 0.00 | 0.00 | 100 | 1006.1 |
| 20260505091003 | 22 | 182 | 0.0 | 8.0 | 0.00 | 0.00 | 0.00 | 100 | 1006.2 |
| 20260505090903 | 22 | 182 | 0.0 | 8.0 | 0.00 | 0.00 | 0.00 | 100 | 1006.2 |
| 20260505090802 | 22 | 182 | 0.0 | 8.0 | 0.00 | 0.00 | 0.00 | 100 | 1006.3 |
| 20260505090703 | 22 | 182 | 0.0 | 8.0 | 0.00 | 0.00 | 0.00 | 100 | 1006.2 |
| 20260505090603 | 22 | 182 | 0.0 | 8.0 | 0.00 | 0.00 | 0.00 | 100 | 1006.3 |
| 20260505090503 | 22 | 182 | 1.6 | 8.0 | 0.00 | 0.00 | 0.00 | 100 | 1006.3 |
| 20260505090403 | 22 | 182 | 3.2 | 8.0 | 0.00 | 0.00 | 0.00 | 100 | 1006.3 |
| 20260505090302 | 22 | 192 | 3.2 | 8.0 | 0.00 | 0.00 | 0.00 | 100 | 1006.4 |
| 20260505090203 | 22 | 149 | 1.6 | 8.0 | 0.00 | 0.00 | 0.00 | 100 | 1006.4 |
| 20260505090004 | 22 | 159 | 0.0 | 0.0 | 0.00 | 0.00 | 0.00 | 100 | 1006.4 |
| 20260505085904 | 21 | 159 | 0.0 | 0.0 | 0.00 | 0.00 | 0.00 | 100 | 1006.4 |
| 20260505085803 | 21 | 159 | 0.0 | 0.0 | 0.00 | 0.00 | 0.00 | 100 | 1006.3 |
| 20260505085703 | 21 | 159 | 0.0 | 0.0 | 0.00 | 0.00 | 0.00 | 100 | 1006.3 |
| 20260505085603 | 21 | 159 | 0.0 | 0.0 | 0.00 | 0.00 | 0.00 | 100 | 1006.3 |
| 20260505085505 | 21 | 159 | 0.0 | 0.0 | 0.00 | 0.00 | 0.00 | 100 | 1006.4 |
| 20260505085403 | 21 | 159 | 0.0 | 0.0 | 0.00 | 0.00 | 0.00 | 100 | 1006.4 |
| 20260505085304 | 21 | 158 | 0.0 | 1.6 | 0.00 | 0.00 | 0.00 | 100 | 1006.3 |
| 20260505085202 | 21 | 158 | 0.0 | 4.8 | 0.00 | 0.00 | 0.00 | 100 | 1006.3 |
| 20260505085102 | 21 | 159 | 0.0 | 4.8 | 0.00 | 0.00 | 0.00 | 100 | 1006.4 |
| 20260505085004 | 21 | 159 | 0.0 | 4.8 | 0.00 | 0.00 | 0.00 | 100 | 1006.3 |